                ,  0.290,  0.386,  0.483,  0.580,  0.676,  0.773,  0.869,  0.966,  1.063,  1.159,  1.256,  1.352,  1.449,  1.545,  1.642,  1.739,  1.835,  1.932,  2.028,  2.125,  2.222,  2.318,  2.415,  2.511,  2.608,  2.705,  2.801,  2.898,  2.994,  3.091,  3.188,  3.284,  3.381,  3.477,  3.574,  3.671,  3.767,  3.864,  3.960,  4.057,  4.153,  4.250,  4.347,  4.443,  4.540,  4.636,  4.733,  4.830,  4.926,  5.023,  5.119,  5.216,  5.313,  5.409,  5.506,  5.602,  5.699,  5.796
2000/11/12 00:00,  999.0,  999.0,  999.0,  999.0,  999.0,    0.6,  999.0,   -0.1,   -1.0,   -0.4,   -0.2,    0.4,    0.8,  999.0,  999.0,  999.0,  999.0,    7.4,  999.0,  999.0,  999.0,  999.0,  999.0,  999.0,  999.0,  999.0,  999.0,  999.0,  999.0,  999.0,  999.0,  999.0,  -13.8,  999.0,  999.0,  999.0,  999.0,  999.0,  999.0,  999.0,  999.0,  999.0,  999.0,  999.0,  999.0,  999.0,  999.0,  999.0,  999.0,  999.0,  999.0,  999.0,  999.0,  999.0,  999.0,  999.0,  999.0,  999.0
2000/11/12 00:10,  999.0,   -0.9,   -1.6,   -3.3,    0.6,   -0.1,    0.5,    1.5,   -0.3,   -0.5,    1.8,    0.9,    1.3,  999.0,    2.9,  999.0,  999.0,  999.0,  999.0,  999.0,  999.0,  999.0,  999.0,  999.0,  999.0,  999.0,  999.0,  999.0,  999.0,  999.0,  999.0,  999.0,  999.0,  999.0,  999.0,  999.0,  999.0,  999.0,  999.0,  999.0,  999.0,  999.0,  999.0,  999.0,  999.0,  999.0,    4.3,  999.0,  999.0,  999.0,    3.6,  999.0,  999.0,  999.0,  999.0,  999.0,    1.2,  999.0
2000/11/12 00:20,  999.0,   -0.1,   -1.4,   -1.5,    0.4,   -1.1,   -1.7,   -0.7,   -0.2,  999.0,    2.9,    0.9,   -0.7,  999.0,  999.0,    4.5,  999.0,  999.0,  999.0,  999.0,  999.0,   -1.6,  999.0,  999.0,  999.0,  999.0,   -4.4,  999.0,  999.0,  999.0,  999.0,  999.0,  999.0,  999.0,  -15.8,  999.0,  999.0,  999.0,  999.0,  999.0,  999.0,  999.0,  999.0,  999.0,  999.0,  999.0,  999.0,  999.0,  999.0,  999.0,  999.0,  999.0,  999.0,  999.0,  999.0,  999.0,  999.0,  999.0
2000/11/12 00:30,  999.0,  999.0,   -2.5,   -0.2,    0.2,   -0.2,    0.9,    0.1,   -3.1,  999.0,   -0.5,  999.0,   -0.8,  999.0,  999.0,  999.0,  999.0,  999.0,    4.1,  999.0,  999.0,   -2.9,   -0.3,   -3.7,   -5.7,  999.0,  999.0,  999.0,   -7.6,  999.0,  999.0,  999.0,  999.0,  999.0,  999.0,  999.0,  999.0,  999.0,  999.0,  999.0,  999.0,  999.0,  999.0,  999.0,  999.0,  999.0,  999.0,  999.0,  999.0,  -29.4,  999.0,  -30.2,  -31.0,  -32.1,  999.0,  -30.5,  999.0,  999.0
2000/11/12 00:40,  999.0,  999.0,   -0.4,    0.1,    0.0,   -0.3,    1.1,    0.0,    0.4,    1.7,    2.9,    1.0,    1.7,    2.1,    3.4,  999.0,  999.0,    6.1,  999.0,  999.0,  999.0,   -0.6,    2.2,  999.0,  -11.0,  999.0,  999.0,  999.0,  999.0,  999.0,  999.0,  999.0,  999.0,  999.0,  999.0,  999.0,  999.0,  999.0,  999.0,  999.0,  999.0,  999.0,  999.0,  999.0,  999.0,  999.0,  999.0,  999.0,  999.0,  -27.9,  -28.1,  -29.9,  -30.6,  -31.0,  -28.7,  -28.9,  999.0,  999.0
2000/11/12 00:50,  999.0,  999.0,    0.1,    0.6,   -0.9,    0.6,    0.6,    1.2,    0.8,    2.5,    3.0,    3.8,    5.6,    3.4,    2.5,    2.3,  999.0,    2.3,  999.0,  999.0,  999.0,  999.0,  999.0,  999.0,  999.0,  999.0,  -12.8,  999.0,  999.0,  999.0,  999.0,  999.0,  999.0,  999.0,  999.0,  999.0,  999.0,  999.0,  999.0,  999.0,  999.0,  999.0,  999.0,  999.0,  999.0,  -24.7,  999.0,  999.0,  999.0,  999.0,  999.0,  999.0,  999.0,  999.0,  999.0,  999.0,  999.0,  999.0
2000/11/12 01:00,  999.0,  999.0,  999.0,   -0.3,    1.4,    0.4,    1.2,    1.5,    0.5,    0.9,    1.5,    2.2,  999.0,    5.8,    3.5,    5.2,  999.0,   -1.2,   -1.8,   -2.7,  999.0,  999.0,  999.0,  999.0,  999.0,  999.0,  999.0,  999.0,  999.0,  999.0,  999.0,  999.0,  999.0,  999.0,  999.0,  999.0,  999.0,  999.0,  999.0,  999.0,  999.0,  999.0,  999.0,  999.0,  999.0,  999.0,  999.0,  999.0,  999.0,  999.0,  999.0,  999.0,  999.0,  999.0,  999.0,  999.0,  999.0,  999.0
2000/11/12 01:10,  999.0,    0.5,    0.3,  999.0,    1.9,    1.2,    1.9,    1.5,   -1.2,    0.3,    0.2,    3.0,    4.0,    6.0,    3.7,    3.9,    2.6,  999.0,  999.0,  999.0,   -4.7,  999.0,   -8.3,  999.0,   -5.3,  999.0,  999.0,  999.0,  999.0,    4.3,  999.0,  999.0,  999.0,    1.1,  999.0,  999.0,  999.0,  999.0,  999.0,  999.0,  999.0,  999.0,  999.0,  999.0,  999.0,  999.0,    0.7,  999.0,  999.0,  999.0,  999.0,  999.0,  999.0,  999.0,  999.0,  999.0,    0.7,  999.0
2000/11/12 01:20,  999.0,    0.5,    0.9,   -2.5,    4.4,   -1.0,    0.4,    1.2,    2.0,    1.0,  999.0,    4.2,  999.0,    3.3,    3.5,    2.2,  999.0,    2.8,  999.0,  999.0,  999.0,  999.0,  999.0,  999.0,  999.0,  999.0,  999.0,  999.0,  999.0,  999.0,  999.0,  999.0,  999.0,    1.0,    0.6,    0.8,    0.8,    1.3,    0.9,  999.0,  999.0,  999.0,    0.3,    0.9,    0.5,  999.0,    0.6,  999.0,  999.0,  999.0,  999.0,  999.0,  999.0,  999.0,  999.0,  999.0,    0.9,  999.0
2000/11/12 01:30,  999.0,    0.0,    0.1,    0.2,    2.0,   -0.1,  999.0,    0.2,    0.3,    1.7,    2.3,    0.1,    7.2,    3.4,    3.0,  999.0,  999.0,  999.0,  999.0,  999.0,  999.0,  999.0,  999.0,  999.0,  999.0,  999.0,  999.0,    3.1,    2.3,    0.9,  999.0,  999.0,  999.0,    0.8,    0.8,    1.1,    0.5,    0.8,    0.6,  999.0,   -0.1,    0.5,    0.1,    1.2,    0.9,    0.2,    0.8,    0.4,  999.0,  999.0,    0.6,  999.0,  999.0,  999.0,  999.0,  999.0,    1.6,  999.0
2000/11/12 01:40,  999.0,    1.2,   -0.1,    0.3,    0.7,    1.3,    3.0,    0.0,    0.5,    2.1,    2.7,    2.1,  999.0,    5.4,    2.8,  999.0,    4.8,  999.0,  999.0,  999.0,  999.0,  999.0,  999.0,  999.0,  999.0,  999.0,    3.6,    3.7,    2.1,  999.0,    1.1,    1.2,  999.0,    1.4,    0.8,    0.8,    0.8,    1.1,  999.0,  999.0,    0.9,    1.2,    1.0,    0.9,    1.5,    0.4,    0.7,    0.8,    1.2,  999.0,    0.5,    0.5,  999.0,    0.6,  999.0,    0.9,    0.2,  999.0
2000/11/12 01:50,  999.0,    0.7,    0.3,   -0.7,    0.9,    2.8,    2.7,    1.1,    1.7,    4.0,    3.0,  999.0,    5.3,  999.0,    3.6,  999.0,  999.0,  999.0,  999.0,  999.0,   11.2,   12.2,  999.0,  999.0,  999.0,  999.0,    5.9,    5.4,    3.8,    1.9,    1.0,    1.0,    1.4,  999.0,    1.0,    1.0,    0.7,    0.7,    0.6,  999.0,    0.9,    1.1,    1.1,    1.0,    0.4,    0.6,  999.0,    0.9,    0.4,    0.5,    0.5,    0.8,    1.5,    0.4,  999.0,    1.3,    0.7,    1.1
2000/11/12 02:00,  999.0,  999.0,  999.0,  999.0,    0.1,    0.5,    2.4,    1.2,    1.5,    5.9,    3.7,  999.0,    6.7,    4.9,   -0.9,    1.3,  999.0,  999.0,  999.0,  999.0,   10.1,    7.9,    7.5,  999.0,  999.0,    3.4,    2.3,    1.5,    0.9,  999.0,    0.6,  999.0,    0.0,   -0.0,    1.3,  999.0,    0.8,  999.0,  999.0,    1.7,  999.0,  999.0,    0.4,  999.0,  999.0,    1.5,    0.8,    1.2,    0.9,    0.6,  999.0,    1.5,    1.1,    0.6,  999.0,  999.0,    0.3,  999.0
2000/11/12 02:10,  999.0,  999.0,  999.0,    2.9,    1.1,  999.0,    1.3,    1.8,    2.6,    4.0,    5.2,    3.4,    7.1,  999.0,   -1.3,  999.0,   -4.6,  999.0,  999.0,  999.0,  999.0,  999.0,    8.0,    0.9,  999.0,  999.0,    0.7,  999.0,    0.8,    0.9,  999.0,    1.6,    0.6,    1.2,    0.5,    0.9,  999.0,    0.6,   -0.5,    0.8,    1.5,  999.0,  999.0,  999.0,    1.2,  999.0,    0.1,    0.6,    0.4,  999.0,    0.6,  999.0,  999.0,  999.0,    0.8,  999.0,  999.0,    0.2
2000/11/12 02:20,  999.0,  999.0,   -5.2,   -0.6,  999.0,  999.0,    2.8,    4.8,    0.7,    5.3,    4.8,    5.6,    5.8,  999.0,    3.7,   -1.1,   -1.3,  999.0,   -0.5,  999.0,  999.0,  999.0,    6.1,  999.0,    3.3,    4.7,  999.0,    3.2,    1.3,    1.2,   -0.2,  999.0,    1.2,  999.0,    0.6,  999.0,    0.9,    0.5,    0.4,    1.4,    0.7,    0.9,   -0.7,  999.0,  999.0,    0.5,    0.7,    0.5,  999.0,    0.3,    0.4,    0.5,    1.1,    0.7,    1.0,  999.0,  999.0,    1.0
2000/11/12 02:30,  999.0,  999.0,   -0.6,    0.0,    0.9,  999.0,  999.0,  999.0,    1.9,    4.4,    5.4,    4.7,    4.1,    3.9,    3.1,  999.0,  999.0,  999.0,  999.0,  999.0,  999.0,  999.0,  999.0,  999.0,  999.0,  999.0,    4.5,  999.0,    2.2,    0.4,  999.0,    0.7,  999.0,    1.1,  999.0,  999.0,    0.7,  999.0,    0.8,    1.1,  999.0,    0.5,    0.6,  999.0,    0.8,  999.0,    1.1,   -0.3,    0.4,  999.0,    0.7,  999.0,    0.8,  999.0,  999.0,    0.5,    1.1,    0.7
2000/11/12 02:40,  999.0,  999.0,   -0.4,    0.5,    1.4,    6.0,    7.6,    6.9,    2.6,    5.6,    6.9,    4.3,    4.2,    4.7,    4.1,    3.8,  999.0,  999.0,  999.0,  999.0,  999.0,  999.0,  999.0,    4.2,    5.0,  999.0,    1.8,   -0.0,    0.7,    0.4,    0.8,    0.5,    0.8,    0.5,    0.5,    0.3,    0.4,    0.6,    0.3,    0.9,  999.0,    0.4,  999.0,    0.7,    0.4,    0.7,    0.6,    0.8,    0.4,    0.6,    0.6,  999.0,    1.1,    0.5,    0.8,    0.6,    0.4,    1.0
2000/11/12 02:50,  999.0,  999.0,  999.0,   -0.2,   -0.4,    1.0,   -0.4,    0.1,    3.3,    4.5,    6.3,    6.1,    2.2,    1.3,   -0.7,   -2.3,  999.0,  999.0,  999.0,  999.0,  999.0,  999.0,  999.0,  999.0,  999.0,  999.0,  999.0,    1.1,  999.0,  999.0,  999.0,    0.5,    0.7,  999.0,  999.0,  999.0,    0.5,  999.0,  999.0,  999.0,    1.0,    1.0,  999.0,    0.5,  999.0,    0.5,    0.7,  999.0,  999.0,  999.0,    0.5,  999.0,  999.0,    1.0,  999.0,    0.5,  999.0,  999.0
2000/11/12 03:00,  999.0,  999.0,   -1.2,   -1.3,   -0.2,    0.2,    1.4,   -1.2,    1.1,    3.0,    3.6,    4.8,    5.1,    4.2,    4.6,    3.5,    3.0,  999.0,  999.0,  999.0,  999.0,  999.0,  999.0,  999.0,  999.0,   12.1,  999.0,    1.1,    4.9,    4.6,    3.6,  999.0,  999.0,  999.0,  999.0,    2.0,    1.3,    0.3,    0.7,    0.8,    0.6,    0.2,  999.0,    0.3,  999.0,  999.0,    0.8,    0.8,    1.0,    1.0,  999.0,    1.1,  999.0,  999.0,  999.0,    1.4,    0.6,    0.9
2000/11/12 03:10,  999.0,  999.0,  999.0,    3.5,    0.9,    2.4,    0.8,    1.9,    2.6,    4.5,    5.0,    6.1,    5.0,    4.5,    4.0,    3.9,    3.6,  999.0,  999.0,  999.0,  999.0,  999.0,  999.0,  999.0,  999.0,    9.3,  999.0,    6.9,    6.1,  999.0,    4.9,    3.6,    1.6,    1.7,  999.0,  999.0,    0.4,    0.1,    0.3,    0.4,    1.4,    0.6,  999.0,    0.7,    0.2,    0.9,    1.0,    0.9,    0.7,  999.0,    0.3,    0.5,    1.0,    1.1,    0.3,    0.4,    0.8,    0.9
2000/11/12 03:20,  999.0,  999.0,  999.0,  999.0,    0.9,    1.8,    1.0,    0.2,    3.0,    3.1,    4.3,    4.3,    4.1,    4.0,    4.3,    4.0,    3.4,    4.4,  999.0,  999.0,  999.0,   15.0,   12.7,  999.0,    7.7,    6.5,    6.2,    1.2,  999.0,    4.0,    0.7,    1.0,    1.1,    0.6,  999.0,    1.0,    0.7,    1.2,    0.9,    1.4,    0.8,    0.8,    0.9,    0.3,    0.4,    0.6,    0.8,    1.8,    0.6,    0.4,    0.5,    0.4,    0.6,    1.1,    1.0,    0.8,    0.0,    1.1
2000/11/12 03:30,  999.0,  999.0,  999.0,  999.0,   -0.0,   -1.1,    1.8,    1.1,    1.4,    3.6,    3.5,  999.0,    4.4,    4.8,    4.9,    5.2,    3.3,    1.1,   -0.2,  999.0,  999.0,  999.0,  999.0,  999.0,   11.2,  999.0,  999.0,  999.0,    6.5,    2.3,    3.0,  999.0,  999.0,  999.0,  999.0,  999.0,    0.3,    0.5,    0.2,    0.2,    0.3,   -0.2,    0.9,   -0.2,  999.0,  999.0,    0.4,    0.7,   -0.1,    0.7,    1.4,    1.0,    1.2,    1.4,    1.0,    1.6,    0.7,    0.4
2000/11/12 03:40,  999.0,  999.0,    0.6,    0.6,    0.8,    0.6,    0.8,    1.4,    3.3,    4.5,    6.2,    6.9,    4.1,    4.5,    4.9,    4.3,    3.7,    4.2,    3.8,  999.0,  999.0,  999.0,  999.0,   15.4,  999.0,   12.5,   11.6,   11.4,   11.3,    4.2,    9.2,    3.7,  999.0,    3.7,    1.9,    1.8,    0.8,    1.5,    1.2,    0.8,  999.0,    0.3,    0.5,    1.3,    0.5,    1.0,    0.5,    1.0,    0.6,    0.7,    1.1,    1.1,    1.0,    0.4,    0.6,    0.9,    1.3,    0.9
2000/11/12 03:50,  999.0,  999.0,  999.0,  999.0,    0.8,    1.5,    1.7,    2.5,    2.4,    3.5,    3.7,    4.9,    4.5,    4.3,    4.4,    3.9,    4.5,    5.2,    3.6,  999.0,  999.0,  999.0,  999.0,  999.0,  999.0,  999.0,  999.0,   11.7,  999.0,  999.0,    8.3,    7.6,    5.4,  999.0,  999.0,    2.4,    2.2,   -0.0,  999.0,    0.4,    0.4,    0.5,  999.0,  999.0,    0.7,    1.0,  999.0,    1.0,    1.2,    0.6,    0.7,    0.7,    0.8,    0.4,   -0.2,  999.0,    1.3,  999.0
2000/11/12 04:00,  999.0,  999.0,  999.0,  999.0,    0.4,    0.9,    1.3,    2.1,    2.5,    4.0,    5.1,    6.2,    6.2,    4.9,    4.2,    4.7,    3.9,    2.9,    3.2,  999.0,  999.0,  999.0,  999.0,  999.0,  999.0,  999.0,  999.0,   11.9,  999.0,  999.0,    8.7,    0.8,    0.5,    1.0,    3.5,    2.6,    2.0,    0.8,    0.5,    0.7,    1.0,  999.0,    0.7,    0.8,  999.0,    0.9,    1.1,    1.0,    1.0,    1.0,  999.0,  999.0,    0.9,    0.4,    0.6,    0.5,    0.9,    0.8
2000/11/12 04:10,  999.0,  999.0,  999.0,    1.3,   -3.2,   -1.2,    1.0,    3.2,    2.8,    3.3,    5.3,    5.5,    5.2,    4.0,    5.1,    3.5,    3.3,  999.0,    2.1,    2.7,  999.0,  999.0,  999.0,  999.0,  999.0,  999.0,    9.5,  999.0,    7.2,  999.0,  999.0,    5.8,    4.4,    4.7,    4.3,    1.3,    0.2,    0.8,    0.3,    1.1,    0.7,  999.0,    0.8,    0.5,    0.4,    0.7,    0.2,  999.0,    0.3,    0.6,    0.3,    0.6,    0.7,    0.6,    0.9,    1.0,    0.7,    0.8
2000/11/12 04:20,  999.0,  999.0,    0.4,   -0.6,  999.0,   -0.3,    1.8,    2.2,    0.9,    5.1,    5.0,    1.9,    3.5,  999.0,    3.6,    2.2,    0.1,    1.1,  999.0,  999.0,  999.0,  999.0,  999.0,  999.0,  999.0,  999.0,  999.0,  999.0,  999.0,    3.9,    3.6,  999.0,    1.3,  999.0,    0.8,    1.2,  999.0,    1.0,    0.7,    0.8,    0.9,    1.1,    1.1,    1.1,    0.8,    0.7,    1.1,    0.8,    0.6,    0.8,    1.0,    1.1,    0.6,    0.3,    0.5,  999.0,    0.5,  999.0
2000/11/12 04:30,  999.0,  999.0,  999.0,  999.0,   -1.1,    0.5,    0.2,    1.1,    1.2,    1.6,    4.1,    3.4,  999.0,  999.0,  999.0,  999.0,  999.0,  999.0,   -2.4,  999.0,  999.0,  999.0,  999.0,  999.0,  999.0,  999.0,  999.0,  999.0,  999.0,    4.8,    3.5,  999.0,  999.0,  999.0,  999.0,    1.2,    1.3,  999.0,  999.0,  999.0,    1.0,    0.8,    1.0,    1.0,  999.0,  999.0,  999.0,    1.6,  999.0,    1.8,  999.0,  999.0,  999.0,    0.6,  999.0,  999.0,  999.0,  999.0
2000/11/12 04:40,  999.0,  999.0,    0.3,   -1.3,    1.2,    1.6,    1.4,    1.0,    1.5,  999.0,  999.0,  999.0,  999.0,  999.0,  999.0,  999.0,  999.0,  999.0,  999.0,  999.0,  999.0,  999.0,  999.0,  999.0,  999.0,  999.0,  999.0,    2.5,    0.8,    1.5,  999.0,    1.0,  999.0,    1.2,    0.6,  999.0,    0.1,   -0.1,    0.6,    0.7,  999.0,    0.7,    0.0,    1.2,  999.0,  999.0,    1.5,    0.5,    0.9,  999.0,    1.2,    0.7,    0.5,  999.0,  999.0,    1.2,  999.0,    1.4
2000/11/12 04:50,  999.0,  999.0,   -0.6,    0.5,    0.0,    0.1,    0.9,    1.1,    0.7,    5.2,    4.4,  999.0,  999.0,  999.0,  999.0,  999.0,  999.0,  999.0,  999.0,  999.0,  999.0,  999.0,  999.0,  999.0,  999.0,    7.6,  999.0,  999.0,  999.0,    0.9,  999.0,    0.6,    1.4,    0.3,   -0.2,    0.4,  999.0,  999.0,  999.0,    0.3,    1.3,  999.0,  999.0,  999.0,    0.8,    0.2,  999.0,   -0.1,    1.1,  999.0,    0.5,    0.4,    1.1,  999.0,    0.9,  999.0,  999.0,    0.7
2000/11/12 05:00,  999.0,  999.0,    1.5,    2.6,    1.4,   -0.1,    0.3,    1.5,    0.3,  999.0,    5.9,    5.1,  999.0,  999.0,  999.0,  999.0,  999.0,  999.0,  999.0,  999.0,  999.0,  999.0,  999.0,  999.0,    6.2,    5.6,    4.3,  999.0,  999.0,    0.6,   -0.1,    1.2,    0.5,    0.5,    0.6,    0.4,    1.0,    1.7,    0.7,    0.5,    0.7,    0.9,    1.2,    0.9,    0.2,   -0.1,    1.3,    0.2,  999.0,    1.2,  999.0,    0.8,    0.6,    0.8,    1.3,    0.4,    0.8,    0.9
2000/11/12 05:10,  999.0,   -1.1,   -0.5,    0.0,    1.4,    1.2,    0.8,    0.0,   -0.0,    3.7,    5.6,  999.0,    3.5,  999.0,    3.6,  999.0,  999.0,  999.0,  999.0,  999.0,  999.0,  999.0,  999.0,  999.0,  999.0,  999.0,  999.0,  999.0,  999.0,  999.0,  999.0,    1.0,    0.6,  999.0,    0.7,  999.0,   -0.1,  999.0,    1.0,    0.4,  999.0,    0.9,    0.6,    0.9,    0.8,    1.0,    1.1,  999.0,    0.7,  999.0,    0.3,    1.0,  999.0,  999.0,    0.9,  999.0,    0.7,   -0.1
2000/11/12 05:20,  999.0,   -1.3,    0.1,    0.7,    0.8,    1.4,    1.0,    0.5,    0.9,    1.1,  999.0,    4.8,  999.0,  999.0,  999.0,  999.0,  999.0,  999.0,  999.0,  999.0,  999.0,  999.0,  999.0,  999.0,  999.0,  999.0,    1.9,    1.9,    1.0,    1.5,    0.5,    0.6,    1.0,    0.7,    0.7,    1.9,    0.6,    0.4,    0.8,    0.7,    0.9,    0.5,    1.3,    0.9,    0.8,    0.4,    0.6,    0.7,    0.7,  999.0,    0.6,    0.2,    0.2,    0.6,    0.8,  999.0,    1.0,    0.8
2000/11/12 05:30,  999.0,  999.0,  999.0,  999.0,  999.0,  999.0,   -0.5,   -3.3,   -2.8,    1.8,  999.0,  999.0,    4.7,    5.9,  999.0,  999.0,  999.0,    2.1,  999.0,  999.0,  999.0,  999.0,  999.0,    3.8,  999.0,    1.4,    1.4,  999.0,    1.3,    0.2,    1.0,    0.8,  999.0,   -0.1,    0.8,    0.4,    0.5,    0.5,    0.6,    0.7,    0.4,    0.2,    0.7,  999.0,    0.5,    0.5,    1.3,    0.0,    0.8,    0.8,    0.4,    0.8,    0.5,    0.4,    0.2,    0.8,    1.2,  999.0
2000/11/12 05:40,  999.0,  999.0,  999.0,  999.0,    0.3,    0.9,    1.4,  999.0,    0.0,    1.0,    0.2,    6.4,    7.9,  999.0,  999.0,  999.0,  999.0,  999.0,  999.0,  999.0,  999.0,  999.0,  999.0,    3.8,    3.9,    0.9,    0.8,    0.9,    2.0,  999.0,    0.6,    1.0,    0.8,  999.0,   -0.1,    0.5,    0.4,    0.7,    0.7,  999.0,  999.0,  999.0,    0.2,  999.0,    0.4,  999.0,    0.2,  999.0,    1.0,    1.1,    1.0,    0.9,    0.9,    1.4,    0.8,    0.9,    0.7,    1.3
2000/11/12 05:50,  999.0,  999.0,   -0.1,    0.3,    0.4,   -0.2,    0.2,   -0.2,   -3.6,   -0.6,   -2.7,   -0.2,    1.7,  999.0,  999.0,    9.6,  999.0,  999.0,  999.0,  999.0,  999.0,  999.0,  999.0,    7.2,    6.1,    5.4,  999.0,    2.6,    1.8,    1.7,  999.0,    1.0,    0.7,    1.2,    1.5,    0.5,    0.8,  999.0,    0.8,   -0.4,    0.5,    0.7,  999.0,    0.2,    1.0,    0.6,    0.6,    1.1,    1.0,  999.0,    0.7,    0.6,    1.2,    1.0,    1.2,  999.0,   -0.0,    0.4
2000/11/12 06:00,  999.0,  999.0,  999.0,    1.7,    0.5,   -2.5,    0.9,   -0.4,   -1.1,    1.2,    1.1,  999.0,  999.0,    8.0,  999.0,  999.0,  999.0,  999.0,  999.0,  999.0,  999.0,  999.0,    8.1,    7.6,    6.5,    6.0,    3.8,    4.5,    2.5,    1.5,    0.5,    0.6,    0.5,    0.3,    0.1,    1.1,    0.5,    1.2,    0.9,    0.3,    1.0,    1.1,    0.6,    1.1,    0.8,    0.8,    0.7,    0.8,    0.1,    0.8,    0.7,    1.0,    0.5,    1.1,    0.4,    0.6,    0.5,    1.4
2000/11/12 06:10,  999.0,  999.0,  999.0,    0.7,   -0.4,   -0.8,    0.1,   -0.7,    0.3,    1.5,    0.0,    4.4,  999.0,    6.0,  999.0,    8.6,  999.0,  999.0,  999.0,   10.8,   12.7,   11.2,    7.5,    6.9,    3.5,    3.9,    2.0,  999.0,    2.4,    0.5,    0.9,  999.0,    0.2,    0.8,  999.0,    0.3,  999.0,  999.0,    0.9,    0.4,    0.6,  999.0,    0.2,    0.4,    0.8,    1.0,    1.0,    1.0,    0.9,  999.0,    0.9,    0.2,    0.6,    1.3,    1.4,    1.4,    0.6,    1.0
2000/11/12 06:20,  999.0,  999.0,    2.7,    0.9,    2.6,    1.1,    1.3,    1.7,    0.4,  999.0,    0.6,  999.0,    2.3,   10.4,  999.0,  999.0,  999.0,  999.0,  999.0,    9.5,  999.0,  999.0,    5.3,  999.0,  999.0,    1.6,    0.3,   -0.1,    0.6,  999.0,    0.2,    0.6,    0.6,    0.8,  999.0,  999.0,    0.8,  999.0,    0.4,    0.7,    0.2,    0.2,    0.7,    0.7,    0.2,    0.2,    0.9,    0.7,    0.7,    0.7,    0.4,    0.7,    0.4,    0.8,   -0.1,    1.0,    0.8,    0.7
2000/11/12 06:30,  999.0,  999.0,    0.9,    1.9,  999.0,    1.1,    1.1,    0.1,  999.0,    2.8,  999.0,  999.0,  999.0,    1.0,  999.0,  999.0,  999.0,  999.0,  999.0,  999.0,    4.4,    6.0,    5.8,    6.6,    2.8,  999.0,    1.5,    0.7,    0.8,    0.8,    0.7,    0.6,    0.2,    0.5,    0.8,  999.0,    0.7,    0.1,    0.8,    0.7,    0.4,    0.9,    1.0,    0.8,    0.3,    1.1,    0.6,    0.5,    0.3,    1.0,    0.5,    0.6,    0.6,    0.9,    0.8,    0.1,    0.6,    0.0
2000/11/12 06:40,  999.0,    0.6,    0.7,  999.0,    0.3,   -0.0,  999.0,  999.0,  999.0,    4.1,    3.2,  999.0,  999.0,   10.6,  999.0,  999.0,  999.0,  999.0,  999.0,   12.2,  999.0,    9.5,    7.3,    5.8,    4.2,    2.9,    1.4,  999.0,    0.5,    0.6,    0.3,    0.4,    0.7,  999.0,    0.8,    0.4,    0.7,    0.3,    0.7,    0.6,    0.9,    0.8,    0.8,    0.7,    0.9,    1.0,    0.6,   -0.5,    0.5,  999.0,    1.1,    0.6,    0.8,    1.3,    0.0,    0.8,    0.9,    0.8
2000/11/12 06:50,  999.0,  999.0,  999.0,  999.0,    0.7,  999.0,    0.9,  999.0,  999.0,  999.0,  999.0,    7.3,    5.6,    7.0,    6.5,  999.0,  999.0,  999.0,   15.7,   12.4,   11.9,   11.3,    8.1,    8.4,    7.1,    2.9,    2.5,    1.4,    1.2,    1.9,  999.0,    0.8,    0.8,    1.0,    0.7,   -0.1,    0.6,    0.5,    1.0,    0.5,    1.0,    1.1,    0.8,    1.0,    1.0,    1.1,    0.3,    1.0,    1.2,    0.7,  999.0,  999.0,    1.5,    0.6,    1.0,    0.9,    0.3,    0.9
2000/11/12 07:00,  999.0,    2.4,    1.3,    0.2,    0.5,   -1.3,  999.0,    3.8,    2.9,    6.0,    4.8,    3.9,  999.0,  999.0,  999.0,  999.0,  999.0,   19.2,   18.7,   16.4,   14.3,   11.6,    9.1,    7.3,    6.1,    3.4,    0.9,    0.6,    0.6,  999.0,    0.9,    0.2,    0.7,    0.6,    0.5,    1.1,    0.1,    0.5,    0.3,    0.7,    0.6,    1.6,    0.5,   -0.2,    0.6,    0.4,    0.7,    0.5,    1.0,    0.6,    1.0,    0.6,    0.5,  999.0,    0.3,    0.3,    1.1,    0.1
2000/11/12 07:10,  999.0,   -1.3,   -0.0,    0.6,   -0.6,   -1.2,    3.5,    2.5,    3.1,  999.0,    6.4,  999.0,    6.6,  999.0,  999.0,  999.0,  999.0,   20.0,   19.4,   16.5,   17.4,   13.7,    9.3,  999.0,    3.5,    0.9,    2.6,    2.2,    1.2,    0.4,    1.4,    0.2,    0.7,    0.8,  999.0,    1.0,  999.0,    0.6,    0.4,    0.7,    0.8,    0.4,    1.6,    0.9,    0.6,    0.7,    0.3,    0.3,    0.4,    0.9,    0.7,    0.6,  999.0,    1.1,    0.2,    1.4,    0.8,    0.7
2000/11/12 07:20,  999.0,   -1.2,    0.3,    0.9,    0.8,    1.8,    3.8,    4.1,    4.2,    3.2,    4.5,    5.7,    6.2,  999.0,    6.7,  999.0,   21.7,   20.6,  999.0,  999.0,   15.7,  999.0,  999.0,   11.5,  999.0,    7.8,    5.6,  999.0,    2.4,  999.0,    0.6,    1.3,    0.9,    0.9,    1.2,    0.8,    1.1,    0.9,    1.2,    0.6,    0.8,  999.0,   -0.0,    0.9,    0.3,  999.0,    0.7,    0.8,  999.0,    0.4,  999.0,    1.0,    0.8,    0.7,  999.0,  999.0,    0.6,    0.9
2000/11/12 07:30,  999.0,   -2.2,   -1.2,    1.1,   -1.0,   -1.0,   -0.8,   -0.6,    0.2,    4.2,   -1.2,  999.0,    2.9,    4.6,  999.0,  999.0,   16.6,  999.0,   13.0,  999.0,    9.5,    6.4,    4.1,    2.9,    1.1,    0.6,    0.7,  999.0,    0.6,    0.7,    0.6,    0.2,    0.7,  999.0,    1.1,    0.7,  999.0,    0.5,  999.0,    0.5,    0.6,    0.6,    0.6,    0.8,    0.6,    0.5,    0.1,    0.8,    0.5,    0.6,    0.8,    0.6,    0.8,    0.7,    0.7,    0.5,  999.0,    0.7
2000/11/12 07:40,  999.0,   -1.5,   -1.3,    0.8,   -0.9,   -0.6,   -0.5,    0.4,  999.0,  999.0,    0.0,    2.2,    1.3,    1.5,  999.0,  999.0,  999.0,  999.0,    9.0,  999.0,  999.0,    5.2,  999.0,    2.9,  999.0,    0.4,    1.6,    1.2,    0.7,    0.7,    0.5,    1.1,    0.9,    0.6,    0.6,    0.6,    1.2,    1.2,    0.6,    0.4,    0.5,    1.0,    0.9,    1.2,    0.9,    0.9,    0.9,    0.7,    1.0,    0.8,    1.1,    0.9,    1.1,    0.6,    0.4,  999.0,    1.0,    0.6
2000/11/12 07:50,  999.0,   -2.8,   -2.8,   -2.3,   -1.1,    0.4,    1.4,    2.5,    1.6,    3.0,    4.4,    3.2,    2.6,    1.5,    1.2,  999.0,  999.0,  999.0,  999.0,  999.0,  999.0,  999.0,    8.0,    7.1,    1.9,    1.8,    1.7,    0.7,    0.5,    1.0,    0.4,    1.1,    1.1,    1.3,    0.4,    0.9,    0.9,    0.7,  999.0,    0.9,    1.5,    0.7,    0.9,    0.9,    0.9,    1.1,    0.4,  999.0,    0.6,    0.6,  999.0,    0.8,    0.5,    0.5,    1.0,    0.8,    1.1,    0.8
2000/11/12 08:00,  999.0,   -3.8,   -3.8,   -1.5,   -1.5,   -1.3,   -3.3,   -1.5,  999.0,   -1.6,    0.4,  999.0,    7.2,  999.0,  999.0,  999.0,  999.0,  999.0,  999.0,  999.0,   10.8,  999.0,    4.6,  999.0,    0.8,    0.5,  999.0,  999.0,   -0.0,  999.0,  999.0,    1.1,    0.9,  999.0,  999.0,  999.0,  999.0,  999.0,  999.0,  999.0,  999.0,  999.0,  999.0,  999.0,  999.0,  999.0,  999.0,  999.0,  999.0,  999.0,  999.0,  999.0,  999.0,  999.0,  999.0,  999.0,  999.0,  999.0
2000/11/12 08:10,  999.0,   -3.9,   -3.7,   -3.2,   -3.3,   -2.0,   -1.0,    0.5,   -1.1,    0.7,    1.5,    3.8,    2.4,    2.3,  999.0,  999.0,  999.0,  999.0,  999.0,  999.0,  999.0,  999.0,  999.0,  999.0,  999.0,  999.0,  999.0,    0.6,  999.0,    0.6,  999.0,  999.0,    0.9,    0.6,    0.7,  999.0,    1.2,  999.0,  999.0,  999.0,  999.0,  999.0,  999.0,  999.0,  999.0,  999.0,  999.0,  999.0,  999.0,  999.0,  999.0,  999.0,  999.0,  999.0,  999.0,  999.0,  999.0,  999.0
2000/11/12 08:20,  999.0,   -1.6,   -1.5,   -2.7,   -2.6,   -2.3,   -2.3,    0.3,    0.9,    1.5,   -0.3,    4.2,    0.7,    4.4,  999.0,  999.0,  999.0,  999.0,  999.0,  999.0,  999.0,  999.0,  999.0,  999.0,    0.5,    0.6,    1.0,  999.0,    0.5,    1.0,    0.9,  999.0,    0.7,    0.8,  999.0,    0.4,  999.0,    0.7,  999.0,  999.0,    0.2,  999.0,  999.0,    1.0,  999.0,  999.0,  999.0,  999.0,    2.1,    8.8,   16.1,   22.3,   29.3,   35.9,   41.7,   41.4,   41.6,   41.4
2000/11/12 08:30,  999.0,   -2.9,   -2.9,   -2.6,   -1.8,   -1.7,   -0.7,    1.7,    2.9,   -2.5,    0.6,    5.4,    5.7,    1.3,  999.0,  999.0,  999.0,  999.0,  999.0,  999.0,    4.8,  999.0,  999.0,  999.0,    0.3,  999.0,  999.0,  999.0,  999.0,  999.0,  999.0,  999.0,  999.0,  999.0,    0.8,  999.0,    0.6,    0.2,    1.2,  999.0,    0.3,    0.6,    0.1,    0.6,  999.0,  999.0,  999.0,  999.0,  999.0,  999.0,  999.0,  999.0,  999.0,  999.0,  999.0,  999.0,  999.0,  999.0
2000/11/12 08:40,  999.0,   -4.2,   -3.2,   -2.9,   -2.7,   -2.8,   -2.2,   -1.8,   -2.9,    0.3,   -2.2,   -2.5,   -3.2,   -5.3,   -5.1,  999.0,   -9.6,  999.0,  999.0,  999.0,  999.0,  999.0,  999.0,  999.0,  999.0,  999.0,  999.0,  999.0,  999.0,  999.0,  999.0,  999.0,  999.0,  999.0,  999.0,  999.0,  999.0,    0.1,    1.3,  999.0,    0.7,    0.8,    0.7,  999.0,    0.3,  999.0,  999.0,    0.7,    3.8,   13.8,  999.0,  999.0,   42.5,  999.0,  999.0,  999.0,  999.0,  999.0
2000/11/12 08:50,  999.0,   -0.8,   -0.9,   -1.6,   -1.8,   -1.8,   -0.8,   -0.5,    0.7,    4.0,   -0.3,  999.0,    0.7,   -1.9,   -2.0,   -3.0,   -1.4,  999.0,  999.0,  999.0,  999.0,  999.0,  999.0,    4.5,    3.5,    2.1,    0.9,    4.6,    8.2,   12.1,  999.0,  999.0,  999.0,  999.0,  999.0,  999.0,  999.0,  999.0,  999.0,  999.0,  999.0,  999.0,  999.0,  999.0,  999.0,  999.0,  999.0,  999.0,  999.0,  999.0,  999.0,  999.0,  999.0,  999.0,  999.0,  999.0,  999.0,  999.0
2000/11/12 09:00,  999.0,  999.0,  999.0,  999.0,  999.0,  999.0,  999.0,  999.0,  999.0,  999.0,    0.1,  999.0,    3.2,    4.4,    4.7,   -1.4,  999.0,   16.7,  999.0,  999.0,  999.0,   11.0,   10.0,  999.0,    7.7,    5.7,    4.6,    3.9,    1.5,    1.3,    1.0,    1.0,    0.8,  999.0,    0.8,    0.5,  999.0,  999.0,    0.9,    0.6,    1.0,  -20.7,    1.1,    0.8,    1.0,  -20.3,  -41.6,  -41.7,  -20.4,  -20.4,  -41.5,  -20.6,  -20.4,  -21.1,  -20.6,  -20.5,  999.0,  -41.5
2000/11/12 09:10,  -15.8,   -4.3,   -5.7,    0.2,   -1.5,   -8.4,   -5.8,   -9.3,  999.0,   -0.5,   -1.5,    6.6,    1.8,    0.2,  -14.5,  999.0,  -14.6,  999.0,  999.0,   -3.4,   10.5,  -10.4,    4.2,   15.3,  -34.3,   20.3,   -8.6,   -9.7,  -12.3,  999.0,  -18.3,  -40.1,  -19.6,  -40.8,    1.0,  -20.4,  -20.0,    0.7,    0.7,  -41.5,    0.9,  999.0,    0.9,    0.9,    1.0,  999.0,  999.0,  999.0,  999.0,  999.0,  999.0,  -40.1,  999.0,  -40.7,  -41.9,  999.0,  999.0,  999.0
2000/11/12 09:20,  -20.6,  -19.0,  -17.6,  -15.6,  -14.5,  -13.7,   -9.0,   -6.4,   -4.0,   -2.8,   -0.9,    2.4,    4.5,  999.0,  999.0,  999.0,  999.0,  999.0,  999.0,   39.4,   40.6,   28.1,  999.0,  999.0,   15.4,  999.0,   30.6,  999.0,   26.3,  999.0,   23.0,   21.4,  999.0,  999.0,  999.0,  999.0,  999.0,  999.0,  -35.8,  -37.4,  -38.6,  -39.4,  -40.1,  -39.1,  -38.2,  -36.3,  -30.7,  -32.3,  -23.8,  -21.4,  -28.3,   -0.8,  -42.4,  -28.2,  -28.4,  -28.1,  -21.3,  -28.2
2000/11/12 09:30,  -20.7,  -19.3,  -16.3,  -13.4,  -10.4,   -7.9,   -6.2,   -4.9,   -0.1,    0.1,   -2.4,   -0.7,  999.0,   -1.1,  999.0,  -23.8,  -21.4,  999.0,  999.0,  -13.6,  -10.7,   -8.7,  999.0,   -3.2,  999.0,  999.0,  -41.3,  999.0,  999.0,  -42.3,  -41.6,  -41.5,  -40.7,  -41.4,  -42.0,  -42.0,  999.0,    5.4,  -41.5,  -41.2,  -41.1,  -41.9,  -41.8,  -42.2,  -41.6,  -41.9,  -41.9,  -41.9,  -41.6,  -41.7,  999.0,  -31.6,  -41.9,  -16.7,  -24.7,  999.0,  -22.2,  -31.2
2000/11/12 09:40,  -21.0,  -18.1,  -15.1,  -13.5,  -10.5,   -8.0,   -5.0,   -4.3,   -6.0,  999.0,   -2.8,  999.0,  -38.8,  999.0,  -23.7,  -41.9,  -21.6,  999.0,  999.0,  999.0,  999.0,  999.0,    1.3,    0.4,  999.0,  999.0,  999.0,  999.0,  999.0,  999.0,  999.0,  999.0,  999.0,  999.0,  999.0,  -20.5,  -41.9,  999.0,  -41.7,  -42.0,  999.0,  -41.4,  -41.7,  -41.6,  -41.6,  -42.0,  -41.6,  -35.1,  -31.1,  -34.0,  -41.1,  -33.9,  -23.7,  -40.7,  -22.8,  -41.5,  -41.6,  -41.6
2000/11/12 09:50,  -21.4,  -19.0,  -16.2,  -13.0,  -10.5,   -7.5,   -3.7,  999.0,    1.5,  -13.0,  -11.4,   18.1,  999.0,   -0.3,   -0.8,   -8.6,  999.0,  -21.1,  999.0,   41.9,   -0.0,   14.4,   41.9,   20.7,   41.9,   41.8,  999.0,  999.0,  999.0,  999.0,  999.0,  999.0,  999.0,  999.0,  999.0,   -0.4,   -0.7,   -0.7,   -0.3,    0.2,   -0.5,   -0.5,   -1.1,   -1.5,   -5.9,   -9.3,   -3.0,   -0.9,  -21.0,  -21.3,  -21.0,  -11.8,  -32.7,  -20.0,   -0.5,   -0.9,   -7.3,  -40.2
2000/11/12 10:00,  999.0,  999.0,  999.0,  999.0,  999.0,  999.0,   -1.7,    1.5,    1.8,  999.0,   -1.1,   20.5,   15.2,    0.1,    0.9,    1.4,  -41.7,  -20.5,    1.1,   27.4,   21.5,  999.0,    0.8,    1.5,    1.4,   22.0,   11.8,    1.0,    2.2,   19.3,   12.3,   25.4,   30.4,   28.3,   22.9,   21.3,  999.0,  999.0,   35.6,   26.0,   14.6,   14.1,   14.8,   38.9,   12.0,   12.9,  999.0,   -0.3,   42.2,   41.4,   27.6,   41.5,   20.5,   -0.8,   42.1,   27.7,   27.7,   28.0
2000/11/12 10:10,  999.0,  -15.3,  -10.9,   -5.3,   -1.2,   -1.6,   -0.6,    3.4,   -0.1,    0.4,  999.0,  999.0,    6.1,    6.2,    4.0,    4.8,  999.0,  999.0,  999.0,  999.0,  999.0,  999.0,   28.3,   28.4,   31.3,   31.8,   32.6,   34.2,  999.0,  999.0,   37.4,   38.5,   39.7,   40.7,   41.5,   40.3,   40.5,   41.7,  999.0,  999.0,   41.6,   42.0,   41.7,   41.9,   42.0,   41.9,   41.8,  999.0,   41.9,   41.9,   42.2,   42.0,   41.7,   41.8,   41.6,   41.6,   42.1,   41.9
2000/11/12 10:20,  999.0,  999.0,  999.0,  999.0,  999.0,  999.0,  -19.4,  999.0,    0.6,  -19.7,  999.0,  999.0,  999.0,  999.0,  999.0,  999.0,  999.0,    1.1,    0.8,  999.0,    1.0,    7.8,    1.0,  999.0,  999.0,  999.0,  999.0,  999.0,  999.0,  999.0,  999.0,  999.0,  999.0,  999.0,  999.0,  999.0,  999.0,   40.9,  999.0,  999.0,   41.4,   41.7,   41.9,  999.0,   41.4,   42.1,  999.0,  999.0,  999.0,   42.2,  999.0,   41.5,  999.0,  999.0,   41.6,   41.4,   41.8,   42.1
2000/11/12 10:30,  999.0,  999.0,  999.0,  999.0,  999.0,  999.0,  999.0,   -6.2,   -5.3,   -2.6,    3.6,    2.5,   13.9,  999.0,  999.0,  999.0,  999.0,  999.0,  999.0,  999.0,  999.0,  999.0,    7.5,  999.0,   41.2,    5.3,   20.8,    1.1,   11.4,   11.6,  999.0,   21.3,   37.9,   17.1,    0.7,    0.4,    0.6,    1.2,    0.8,    0.6,    0.3,    0.6,    0.6,  999.0,    1.0,    0.8,    0.8,  999.0,    0.8,    0.5,    1.0,    0.5,  999.0,    0.5,    0.8,    1.0,  999.0,    0.8
2000/11/12 10:40,  999.0,  999.0,  999.0,  999.0,  999.0,  999.0,  999.0,  999.0,   10.1,  999.0,  999.0,    2.6,  999.0,  -15.6,  999.0,  999.0,  999.0,  999.0,  999.0,   -0.8,   -0.7,   -1.0,   -0.7,   -0.8,   -0.7,   -0.8,   -1.0,   -0.8,   -0.2,   27.9,   13.5,  999.0,   42.4,   41.8,   41.9,   41.7,  999.0,  999.0,   41.9,  999.0,   40.6,   41.3,   42.0,  999.0,  999.0,  999.0,   41.9,   42.1,  999.0,   42.4,   41.6,   41.1,   41.7,   41.7,   41.5,  999.0,  999.0,   42.1
2000/11/12 10:50,  999.0,  999.0,  999.0,  999.0,  -13.7,   -9.8,   -7.6,   -7.5,    0.1,  999.0,   10.6,    3.6,    5.8,    9.8,    5.8,   11.2,  999.0,  999.0,  999.0,  999.0,  999.0,  999.0,  999.0,  999.0,  999.0,  999.0,  999.0,   41.9,   42.7,   41.7,   42.3,  999.0,   41.2,   41.7,   41.7,   42.3,   41.3,   41.5,   41.8,   42.1,   42.0,   42.1,   42.0,   42.0,   42.2,   42.1,   42.0,   42.2,   41.9,   41.7,   41.4,   42.0,   41.7,   41.4,   42.0,   42.0,   41.8,   41.4
2000/11/12 11:00,  999.0,  999.0,  999.0,   -3.4,   -5.5,   -3.3,   -1.3,   -0.8,   -0.7,    0.3,    8.6,    8.1,    8.3,  999.0,   17.9,   23.3,   25.7,  999.0,  999.0,  999.0,  999.0,  999.0,   41.9,   41.5,   41.5,   40.7,  999.0,    1.6,  999.0,   41.8,   42.1,   28.6,   41.9,   21.3,   21.1,   28.0,   28.0,   28.0,   41.8,   42.2,   42.3,   28.3,  999.0,   42.0,   28.3,   41.9,   21.3,   28.4,   21.3,   28.2,   28.1,   42.2,   21.9,   41.6,   31.7,   31.6,   41.9,   41.9
2000/11/12 11:10,  999.0,  999.0,  999.0,  999.0,  999.0,    0.5,  999.0,  999.0,  999.0,  999.0,    8.7,  999.0,  999.0,  999.0,  999.0,  999.0,  999.0,  999.0,  999.0,  999.0,  999.0,  999.0,  999.0,  999.0,   42.3,  999.0,   41.7,   41.5,   42.1,   41.6,   41.8,   41.9,   41.7,   41.7,   41.6,   41.8,   41.4,   41.7,   41.9,   41.7,   42.1,   41.6,   41.8,   41.4,   41.8,   41.8,   42.3,  999.0,   41.9,   42.2,   41.7,   41.9,  999.0,   42.1,  999.0,   42.1,   41.8,   41.9
2000/11/12 11:20,  999.0,    1.3,    0.5,   -0.3,   -0.7,   -0.2,    0.9,    2.6,   -1.2,    3.6,   -1.8,  999.0,  999.0,  999.0,  999.0,  999.0,  999.0,   30.4,   32.0,  999.0,  999.0,  999.0,  999.0,   41.8,   41.7,   41.5,   41.6,   42.3,  999.0,   42.0,   41.8,  999.0,   41.8,  999.0,   41.4,   41.5,   41.9,   42.1,   41.9,   42.2,   41.8,   42.1,   41.9,  999.0,  999.0,   42.2,   41.6,   41.4,   41.5,   42.2,   42.4,   42.2,   41.5,   42.2,   41.6,   41.3,  999.0,  999.0
2000/11/12 11:30,  999.0,   -0.0,   -0.6,   -0.5,   -0.4,    0.3,    0.2,   -0.0,    0.7,    5.1,    8.4,    9.7,  999.0,  999.0,  999.0,  999.0,  999.0,  999.0,   21.5,   20.8,  999.0,  999.0,  999.0,   28.2,   21.4,   21.2,   28.1,   28.0,   28.5,  999.0,   28.4,   21.1,   21.2,   28.3,   28.2,   41.6,   21.2,   28.0,   27.9,   21.4,   27.8,   42.0,   28.2,   28.2,   28.1,   28.2,   27.9,   42.2,   28.0,   27.5,   41.6,   42.6,   27.8,   41.5,   30.7,   41.8,   41.9,   28.2
2000/11/12 11:40,  999.0,    1.6,    0.3,    0.0,   -0.8,   -1.1,   -0.6,    0.1,    2.6,    3.7,  999.0,    6.5,    8.4,  999.0,  999.0,  999.0,  999.0,  999.0,   36.4,   38.8,  999.0,  999.0,  999.0,  999.0,  999.0,  999.0,   41.4,  999.0,   42.0,  999.0,  999.0,   41.8,   21.5,    1.1,  999.0,   21.3,   21.3,   41.6,   22.9,   24.6,   11.1,   42.7,   19.2,   28.6,   27.0,   41.6,   41.9,  999.0,   41.5,   42.3,   41.6,   41.6,   41.7,   42.2,   41.8,   41.8,   41.7,   42.0
2000/11/12 11:50,  999.0,   -1.5,    0.9,    0.8,   -1.8,    0.4,    0.8,    0.2,    3.9,    3.8,   11.4,    5.5,    7.6,    5.9,  999.0,  999.0,  999.0,   21.4,  999.0,   21.5,  999.0,  999.0,   25.7,  999.0,   15.2,  999.0,  999.0,  999.0,  999.0,  999.0,   41.2,   41.4,   41.7,   42.1,   29.0,   42.3,    0.3,   28.1,   28.2,   42.4,   33.3,   34.1,   40.0,   41.8,   42.1,   41.9,   41.9,   41.9,   41.6,   41.7,   41.5,   41.8,   42.0,   41.7,   41.8,   41.9,   42.1,   41.7
2000/11/12 12:00,  999.0,    1.1,    2.0,  999.0,    1.5,    2.2,    1.7,    2.1,    1.8,    0.7,   -0.0,   -1.7,    0.7,  -10.9,  999.0,  999.0,  999.0,  999.0,  -20.3,  999.0,  -19.0,  999.0,  999.0,  999.0,  -16.9,  999.0,  999.0,  999.0,  999.0,  999.0,  999.0,  999.0,   -0.2,    4.5,  999.0,    4.8,   10.8,  999.0,   14.8,   17.1,   19.4,   21.4,   23.2,  999.0,  999.0,  999.0,  999.0,   34.1,  999.0,   37.9,   40.5,   41.8,   41.4,  999.0,   41.5,   42.1,   42.0,   42.2
2000/11/12 12:10,  999.0,    0.5,    2.4,    1.1,    1.9,    1.7,    2.1,    2.6,    1.9,    1.4,    0.9,  -10.6,   -9.9,   -4.8,    1.3,  -19.1,  -11.3,  -11.1,  -10.9,   -8.0,  -12.2,   -1.5,  999.0,  -11.7,  999.0,  999.0,  999.0,  999.0,    5.3,  999.0,    0.4,    0.7,    3.7,    6.5,    4.6,    7.4,    4.8,    9.8,   16.6,   18.4,    9.0,   22.4,   24.3,   14.3,   18.8,   29.8,   21.6,   17.6,   24.1,   19.2,   26.4,   27.6,   28.3,   28.0,   28.2,   41.5,   21.1,   21.4
2000/11/12 12:20,  999.0,    0.4,    0.4,    0.0,    0.4,    1.0,    1.7,    2.1,    2.5,    2.6,    1.5,    1.0,    0.1,   -1.6,   -4.6,   -3.7,  -10.3,  -12.2,  -12.6,  999.0,  999.0,  999.0,  999.0,  -15.0,  999.0,    0.3,   11.1,    0.7,    0.1,   11.4,    1.6,    2.4,    5.8,    6.3,    1.0,    9.9,   12.0,   20.3,   14.3,   22.5,   16.3,   21.2,   26.9,   42.0,   21.2,   16.4,   29.0,   31.4,   36.1,   38.1,   41.1,   42.0,   42.5,   42.0,   41.8,   42.1,   42.2,   42.0
2000/11/12 12:30,  999.0,    1.4,    1.1,    5.1,    2.8,    2.9,    2.4,    2.7,    1.5,    1.7,    1.3,    1.1,   -0.3,   -1.4,   -1.8,   -6.2,  -12.6,  -15.7,   -8.8,  -17.5,  -14.2,  999.0,  999.0,  -16.9,  999.0,  999.0,  999.0,    0.8,    0.6,    0.7,    0.3,    0.5,    0.9,    0.5,    0.4,    0.7,    0.6,    0.9,    0.6,    1.0,    1.1,    0.8,    0.5,    0.6,    0.6,    0.3,    1.8,    3.5,    5.9,   11.6,   10.0,   12.2,    0.6,  999.0,    0.7,   14.5,   21.1,    0.9
2000/11/12 12:40,  999.0,   -0.7,    1.1,    2.4,   -0.4,    2.2,    2.7,    1.8,    1.1,    1.0,    1.6,    1.2,    1.9,  999.0,  999.0,  999.0,  999.0,    3.3,    3.0,  999.0,  999.0,  999.0,  999.0,  999.0,  999.0,    0.7,    0.5,    0.8,    0.5,    0.7,    1.1,    0.3,    0.6,    2.4,    4.8,    7.7,    0.6,    1.1,  999.0,   16.4,    0.6,    6.0,   11.1,    1.2,    1.2,   11.1,   14.5,   18.2,   11.1,   19.4,   15.2,   17.7,   18.5,    0.3,    3.6,   31.3,   11.2,   30.5
2000/11/12 12:50,  999.0,    3.9,    1.2,    2.7,    3.0,    3.1,    1.3,    0.7,    1.3,    1.3,    3.5,  999.0,   -0.7,    3.5,  999.0,  999.0,    6.8,    6.7,  999.0,  999.0,  999.0,  999.0,   24.1,   -6.9,    1.0,    1.0,    0.9,   21.1,   21.0,   20.8,   14.4,   14.5,   21.0,   21.3,   14.5,   14.5,    0.5,   14.2,   14.4,    0.4,    0.8,    0.9,    0.9,    0.7,    0.7,    0.5,    0.3,    0.9,    0.8,    1.4,    0.9,    0.7,    0.7,    0.5,    0.7,    1.1,  999.0,    1.0
2000/11/12 13:00,  999.0,   -2.0,    0.3,   -0.9,   -0.9,   -0.1,    0.1,    0.4,    1.6,    3.4,    3.3,    0.7,   -1.9,   -7.2,  -18.2,    4.4,  999.0,  999.0,  999.0,  999.0,  999.0,  999.0,  999.0,  999.0,  -16.5,  999.0,    0.8,    1.5,   14.3,   14.8,   15.2,    6.1,  999.0,    0.8,    0.9,    1.0,    0.8,   13.5,    0.2,    0.8,    4.5,    0.5,   16.0,    6.4,    9.0,   10.1,   14.5,    1.0,  999.0,    0.4,    0.7,    0.8,   13.5,   12.1,  999.0,    0.6,    0.9,   13.4
2000/11/12 13:10,  999.0,  999.0,    5.8,    2.2,    0.1,    1.4,    2.5,    2.8,    0.8,    0.7,    2.1,    4.1,    6.5,   10.0,  999.0,   17.1,   18.2,  999.0,  999.0,   23.5,  999.0,  999.0,  999.0,  999.0,   14.5,   42.3,   23.3,   22.3,   22.8,   22.6,  999.0,   41.7,   42.2,   22.3,   42.0,   42.3,  999.0,   41.9,   42.2,   42.3,  999.0,   22.4,   32.3,   22.4,   32.1,   32.0,   25.2,   17.2,   31.9,   41.0,  999.0,  999.0,  999.0,  999.0,  999.0,  999.0,  999.0,  999.0
2000/11/12 13:20,  999.0,    1.1,    1.9,    1.9,    2.4,    2.5,    2.3,    2.3,    1.9,    1.2,    0.1,    1.9,    2.8,    4.2,    6.9,    9.0,   15.1,  999.0,  999.0,  999.0,  999.0,  999.0,  999.0,  999.0,  999.0,    6.2,   41.4,  999.0,   22.2,    0.2,   21.6,   21.1,   21.3,    1.0,   21.6,    1.2,   14.5,   14.5,   14.6,    0.7,   14.8,    1.2,    0.9,   30.1,  999.0,    3.3,   24.2,   41.3,   18.0,   25.5,   28.1,   29.5,   41.8,   38.1,   41.8,   41.8,   41.1,   41.5
2000/11/12 13:30,  999.0,    1.4,    1.7,    3.0,    3.3,    3.3,    3.1,    2.9,    2.1,    0.9,    1.4,    1.6,   -5.5,   -9.9,  999.0,  999.0,  -16.5,   31.3,  999.0,  999.0,   39.5,   42.1,  999.0,   42.1,   30.9,   41.8,   42.1,   28.1,   41.8,   34.9,   41.4,   33.0,   41.7,   41.6,   41.7,   41.7,   39.3,   37.3,   35.1,   35.2,   35.3,   29.3,   30.4,   41.2,   41.5,   41.7,   41.8,   41.9,  999.0,  999.0,  999.0,   41.4,   41.4,   41.6,   41.5,   41.2,   41.1,   41.0
2000/11/12 13:40,  999.0,    2.7,    3.1,    1.0,    1.1,    2.1,    2.0,    1.8,    2.7,    2.7,    2.7,    3.2,    3.1,    2.8,    4.1,    4.1,    6.8,  999.0,  999.0,  999.0,  999.0,  999.0,  999.0,  999.0,  999.0,  999.0,    0.2,   31.6,   41.9,   21.5,   30.3,   38.9,   41.9,   41.8,   38.0,   32.7,   41.2,  999.0,   21.2,   41.3,   27.7,   28.0,   20.8,   21.0,   -0.0,    0.7,  999.0,    0.5,    0.8,    1.0,    0.5,  999.0,    0.6,    0.4,    0.4,  999.0,    1.1,    0.3
2000/11/12 13:50,  999.0,    0.5,    4.2,    2.8,    1.9,    0.6,    2.1,    1.5,    2.7,    3.0,    2.5,    3.2,    3.2,    5.8,    3.3,    4.0,   12.4,  999.0,  999.0,  999.0,  999.0,  999.0,  999.0,   41.9,   42.0,   42.2,   28.4,   29.8,  999.0,   23.4,   28.2,   36.7,   41.8,   41.4,   41.2,   42.2,   30.7,   31.3,   38.3,   39.3,   34.9,   35.1,   39.9,   34.4,   29.9,   30.5,   28.3,   40.4,   34.3,   37.4,   23.7,  999.0,   39.5,   22.2,   31.4,   31.4,   42.3,  999.0
2000/11/12 14:00,  999.0,    1.5,    2.1,    1.9,    0.8,    0.8,    1.1,    1.8,    0.9,   -0.1,    0.5,   -0.8,    1.7,    1.4,    2.4,    3.5,    3.2,    3.6,  999.0,    7.7,   12.2,   18.5,   23.2,  999.0,  999.0,  999.0,   42.3,   42.1,  999.0,   42.5,   42.3,  999.0,   42.5,   42.4,  999.0,   42.2,   42.2,   42.5,   42.0,   42.0,   42.4,   42.5,  999.0,  999.0,   42.3,   42.1,   42.3,   42.4,   41.8,   42.1,   41.9,  999.0,   42.3,   42.3,   42.4,   42.3,  999.0,  999.0
2000/11/12 14:10,  999.0,    1.4,    1.1,    0.1,    0.0,    0.8,    0.6,    0.3,    1.5,    1.7,    2.0,    2.3,    2.3,    2.4,    2.3,    2.6,    2.7,    4.1,    6.5,   11.2,  999.0,  999.0,   25.2,   24.7,  999.0,  999.0,   37.9,   39.0,   40.8,   42.2,   42.1,   41.9,   41.7,   41.6,   42.4,   35.1,   30.9,   27.0,   28.0,   26.1,    1.0,    1.1,   21.8,   21.6,   17.6,   15.3,    0.7,   19.5,   21.3,   21.1,    0.8,   21.7,   21.3,   21.3,   21.5,   21.5,   42.6,    0.4
2000/11/12 14:20,  999.0,    3.1,   -0.2,    1.0,    2.4,    0.9,    1.6,    0.7,    0.4,    1.0,    0.7,    0.6,    0.7,    0.9,    0.8,    1.8,    2.2,    2.6,    3.2,    3.4,    3.8,    2.5,    4.7,  999.0,  999.0,   28.9,   26.6,   35.2,   40.1,   41.8,   31.8,   38.9,   36.5,   29.4,   26.4,   27.7,   21.2,   18.0,   16.6,   13.9,   10.3,    9.4,   10.9,    6.6,    3.6,    5.0,    5.1,   12.2,    7.8,    6.3,    0.8,    4.1,   14.0,    7.3,    0.7,   10.8,   10.9,    0.6
2000/11/12 14:30,  999.0,    1.5,    2.8,    3.1,    2.3,    1.3,    0.5,    0.1,    0.6,    1.5,    1.6,    3.1,    2.0,    1.8,    1.3,    1.4,    2.2,    2.1,    1.5,    1.4,    1.5,  999.0,  999.0,  999.0,  999.0,  999.0,   19.4,   16.3,   15.9,   14.7,   13.0,   12.6,   11.2,    9.0,    7.2,    7.3,    3.2,    3.9,    1.5,    1.8,  999.0,    0.9,    0.6,    0.8,    0.6,    0.7,    0.7,    1.0,    0.7,    0.9,    0.8,    0.5,    0.6,    0.7,    0.4,    0.8,    0.7,    0.6
2000/11/12 14:40,  999.0,    2.1,    2.4,    2.9,    3.2,    2.8,    2.4,    2.2,    2.5,    2.7,    1.3,    1.2,    0.8,    1.9,    1.0,    0.1,    2.2,    3.8,    3.4,    2.7,    6.8,    4.4,    4.3,    3.9,    6.3,   20.3,  999.0,  999.0,    4.3,   35.4,   37.7,   24.0,  999.0,   22.5,   36.5,   41.6,   29.1,   17.7,   15.2,   21.1,   21.8,   16.2,   21.1,   19.9,   16.3,   24.8,   21.1,   21.5,   16.8,    0.4,   21.8,    1.0,   27.3,   21.6,   17.5,   14.5,   14.4,    0.5
2000/11/12 14:50,  999.0,    0.6,    0.9,    2.2,    2.8,    3.6,    4.6,    4.0,    3.6,    3.8,    3.4,    2.2,    2.0,    2.3,    1.2,    1.5,    2.8,    3.8,    3.9,    4.7,    4.6,    3.4,    2.7,    2.2,    3.3,    7.3,    5.5,    6.7,    5.6,   -1.8,  -11.5,   -5.3,   37.6,   17.2,   -0.6,   -1.3,   20.5,   41.8,   41.6,   35.7,   36.6,   34.8,   42.0,   41.9,    1.3,   30.5,   20.7,   27.1,  999.0,   23.8,   36.6,  999.0,   40.6,   41.1,   39.3,   24.5,   20.6,   28.4
2000/11/12 15:00,  999.0,    1.3,    1.9,    1.7,    1.9,    0.6,    3.8,    5.8,    6.2,    6.3,    4.1,    8.1,    6.1,    7.2,    6.2,    6.5,    6.2,    1.6,    0.2,   -0.5,    2.0,    1.0,   -2.3,   -0.8,   -0.9,    3.1,   -8.1,   -8.4,  -10.5,   -1.5,   17.8,   14.1,  -15.1,   12.6,  -19.0,  -19.8,   42.2,    1.2,    0.4,   13.8,    0.4,   13.9,   41.7,   14.1,   42.1,   41.8,   42.2,   42.6,   42.5,   28.4,   28.0,   28.1,   28.3,   20.4,   42.2,   18.6,   14.3,   14.4
2000/11/12 15:10,  999.0,    8.2,   10.2,    8.1,   15.8,    9.6,    6.6,    7.6,    8.3,    8.0,    8.1,    8.6,    4.2,    2.9,    0.5,    0.7,    0.6,    4.4,    4.3,    9.5,   24.0,   -5.1,   -4.2,   -1.4,    3.4,  -12.5,   -8.2,   -8.1,  999.0,  999.0,   -7.0,   -7.2,   -4.4,   -5.5,   -4.4,   -0.2,    2.6,   -0.4,    1.0,    0.1,   -1.9,   -0.1,  -11.1,  -19.2,  -17.9,  -19.4,  -19.5,  -23.6,  -20.3,  999.0,  -42.8,  999.0,  999.0,  999.0,  999.0,  999.0,  999.0,  999.0
2000/11/12 15:20,  999.0,   10.4,   11.1,   10.1,    9.0,   10.0,    9.5,    9.9,   10.0,    8.7,    7.7,    8.6,    8.5,    3.0,    2.1,    1.0,    1.8,    0.6,    3.1,    1.9,    0.2,    0.4,   -0.3,    3.0,    2.5,    2.8,   21.0,   19.5,   17.4,   24.8,   23.1,   22.7,   20.5,   17.5,   13.4,    9.4,    5.2,    2.3,   -8.4,  -10.0,  -15.8,  -13.7,  -27.6,  -19.6,  -17.3,  -17.2,  -16.1,  -14.8,  -11.3,  -19.8,  -19.9,  -20.6,  -20.6,  -20.2,  -20.6,  -21.2,  -21.7,  -21.5
2000/11/12 15:30,  999.0,    6.5,    9.0,    9.4,    9.3,    9.9,   10.6,    9.8,    7.8,    6.0,    4.4,    6.5,    2.6,  999.0,  999.0,  999.0,  999.0,    2.9,  999.0,   -3.8,   -4.4,   -2.2,   -6.6,   -0.9,    2.1,    3.1,    6.3,  999.0,    5.0,    3.7,    0.9,    5.8,    4.1,    4.8,    0.1,    3.7,    0.8,   -2.3,   -1.5,    5.9,    2.2,   -1.2,    1.4,   -0.3,   -1.7,   -7.3,   -0.8,   -2.0,   -2.3,   -2.9,   -3.2,   -3.6,   -3.9,   -4.2,   -4.3,   -3.7,   -3.8,   -3.9
2000/11/12 15:40,  999.0,  999.0,    9.4,    9.7,   11.3,    9.9,    9.2,    9.2,  999.0,  999.0,  999.0,  999.0,    3.9,    9.0,    3.6,   -1.1,   -3.1,   -4.5,  999.0,   -2.1,   -0.2,    0.6,   -0.2,   -1.4,   -2.8,   -1.8,   -1.4,    1.1,    3.3,    4.5,    5.8,    6.3,    6.5,    7.6,    8.4,    8.1,    7.1,    5.2,    2.1,    0.1,   -3.4,   -5.8,   -4.9,   -1.7,   -0.7,    2.7,    2.2,    3.1,    3.0,    0.3,    0.4,   -0.5,   -1.8,   -2.8,   -3.7,   -3.8,   -3.4,   -2.8
2000/11/12 15:50,  999.0,    1.7,    7.8,   10.4,    9.4,    5.0,    6.3,    7.5,    7.8,    7.7,    5.9,    4.5,    3.4,    2.6,    2.0,    2.2,    1.7,    1.5,    0.8,   -1.5,   -0.9,   -1.1,   -1.3,   -1.2,   -1.8,   -2.0,   -1.1,   -0.7,    0.5,    1.0,    3.4,    3.3,    8.3,    1.1,    1.0,    0.2,    6.0,    6.0,    5.1,    2.3,    5.5,  999.0,  999.0,  999.0,   -0.1,  999.0,  999.0,  999.0,  999.0,   -6.3,  -10.1,   -1.3,   -1.9,   -1.2,   -4.1,   -4.2,   -1.2,   -6.2
2000/11/12 16:00,  999.0,   -3.4,  -12.8,    1.0,  -10.4,  -14.3,   -2.1,   -2.3,    0.7,   -2.9,  -13.5,  -13.0,   -5.9,   -6.8,   -7.9,   -6.2,   -5.7,   -8.0,   -6.3,   -9.3,   -8.7,   -9.1,  -12.8,  -11.6,  -12.6,  -13.2,  -14.6,  -15.1,  -17.0,  -12.9,  -12.5,  -15.6,  -19.1,  -21.2,  -10.8,   -8.4,  -21.1,  -21.2,  -19.4,  -18.5,  -13.2,  -16.6,  -13.9,   -2.6,   -3.7,   -2.0,   -0.8,   -4.4,   -1.6,   -1.0,   -3.3,   -2.0,   -1.7,   -3.0,   -1.0,   -1.9,   -5.1,   -6.6
2000/11/12 16:10,  999.0,   -3.1,   -6.2,   -3.2,   -3.0,   -4.1,   -4.9,   -8.6,   -8.3,  -12.2,   -8.9,   -7.7,  -10.1,  -10.6,  -10.4,   -5.8,   -6.3,   -7.0,   -7.4,  -10.1,   -9.7,   -8.7,   -8.7,   -7.9,   -7.8,   -8.1,   -8.6,   -8.4,   -9.1,   -9.6,   -9.1,   -9.2,   -8.2,   -7.8,   -8.2,   -8.6,   -6.6,   -5.2,   -4.7,   -3.1,   -2.3,   -0.5,    0.2,    0.6,    0.0,   -0.8,   -2.7,   -2.3,   -2.8,   -2.9,   -3.3,   -3.0,   -3.5,   -1.7,   -1.5,   -1.7,   -0.9,   -0.3
2000/11/12 16:20,  999.0,   12.6,    7.9,    9.4,    9.1,    9.6,    9.3,    8.2,    7.7,    2.5,   -2.3,   -3.1,   -4.8,   -6.3,   -7.8,   -9.0,  -10.8,   -0.8,   -7.5,   -8.9,  -14.1,  -12.5,  -11.7,  -13.1,  -15.9,  -17.9,  -17.7,  -14.7,  -13.7,  -13.2,  -16.5,  -15.7,  -16.5,  -14.9,  -14.4,  -11.2,   -9.6,   -8.9,   -5.6,   -1.6,    0.9,    1.7,    1.9,    2.2,    1.5,    1.3,    2.3,    2.9,    2.2,    0.6,    0.7,    0.5,    0.4,    0.2,    0.1,    0.3,    0.1,    0.5
2000/11/12 16:30,    8.0,    6.7,    5.3,   11.3,   13.1,   13.2,   12.7,   11.7,   11.0,   10.4,    3.7,   13.4,    3.5,   11.4,   10.9,    6.2,    1.2,    0.1,    0.8,   -8.4,   -7.7,   -7.3,   -6.8,   -6.7,   -7.8,   -5.7,   -4.6,   -3.9,   -4.3,   -5.2,   -8.2,   -8.2,  -10.0,   -8.5,  -13.2,  -10.2,   -7.3,   -6.7,   -6.5,   -3.1,   -0.9,   -1.0,   -0.9,    1.0,    1.6,    1.1,    1.1,    1.4,    0.8,   -1.2,   -3.9,   -1.3,   -5.7,   -5.6,   -4.0,   -3.5,   -1.2,   -2.9
2000/11/12 16:40,   20.1,   12.0,   11.9,   13.5,   14.0,   12.5,   13.2,   15.8,   14.6,   13.8,   10.7,   11.3,    1.2,    1.9,   -0.3,    1.8,   -2.5,    0.9,   -2.1,   -0.6,    0.1,   -2.8,   -1.6,   -1.3,   -1.7,   -1.0,   -0.8,   -3.9,   -2.3,   -3.6,   -3.6,   -3.6,    0.2,   -3.0,   -1.5,    1.4,    2.4,    3.4,    2.1,    1.1,    3.3,    4.6,    2.8,   -1.5,    5.0,    2.9,    0.8,    0.1,   -0.3,    1.8,   -2.3,    1.6,    0.7,    0.0,   -1.4,   -1.5,   -3.6,   -3.9
2000/11/12 16:50,  999.0,    7.9,    7.6,   10.2,   10.8,   12.3,   15.2,   16.1,   16.0,   15.8,   16.0,   14.2,   13.6,    2.3,   -2.9,   -4.5,   -2.7,   -0.6,    0.3,    1.8,    2.0,    0.9,    0.5,   -1.0,   -0.9,   -1.1,    1.6,    0.4,    1.4,    0.3,   -0.6,   -2.4,   -2.0,   -2.3,   -2.6,   -3.9,   -3.3,   -2.7,   -1.3,   -1.9,    0.7,    2.4,    4.7,   -5.7,   -2.5,   -8.9,   -9.3,   -9.4,   -8.9,   -8.4,   -6.7,   -4.7,   -4.1,   -2.2,   -2.1,   -2.1,   -2.2,   -2.0
2000/11/12 17:00,  999.0,  999.0,    7.7,    7.7,    1.1,    1.1,    1.0,    0.4,   -0.6,   -1.7,   -4.3,   -4.5,   -5.3,   -6.0,   -6.5,   -6.9,   -7.7,   -8.8,   -7.6,   -4.7,   -4.6,   -4.1,   -3.7,   -3.6,   -3.2,   -2.7,    1.3,    1.9,    3.2,    3.6,   -0.1,   -4.6,    0.0,    0.4,    1.2,    2.1,    4.5,    4.8,    5.3,    5.2,    4.4,    3.7,    1.4,    0.9,    2.1,    1.6,    1.7,    1.1,    0.2,    0.4,    0.0,    0.4,   -0.4,    0.3,    0.0,   -1.0,   -0.8,   -0.3
2000/11/12 17:10,    0.2,    0.7,    1.4,   -0.4,   -3.6,   -8.6,  -10.1,  -10.5,  -10.0,   -9.8,  -10.8,  -10.8,  -10.8,   -9.5,   -8.8,   -8.2,   -6.5,   -3.7,   -2.1,   -1.3,   -0.1,    1.0,    1.5,    2.0,    2.1,    2.5,    3.4,    3.1,    2.4,    2.4,    2.3,    1.9,    1.4,   -0.2,   -0.8,    0.2,   -0.1,   -1.5,   -2.5,   -2.7,   -2.5,   -2.8,   -2.6,   -1.8,   -1.4,   -0.1,   -0.5,    2.4,    1.1,  999.0,   -0.4,  999.0,    8.3,  999.0,   -2.4,    1.3,  999.0,   -3.1
2000/11/12 17:20,   -1.4,    0.0,   -4.1,   -5.7,   -7.4,   -8.8,   -7.7,   -8.7,  -10.9,  -10.8,  -10.1,   -8.7,   -7.1,   -4.5,   -1.7,    0.2,    1.3,    1.7,    2.1,    2.1,    1.9,    1.4,    0.4,   -0.6,   -1.6,   -2.2,   -3.8,   -5.4,   -6.5,   -7.5,   -8.2,   -8.5,   -9.1,   -9.0,   -9.2,  -10.4,  -10.2,  -10.6,  -11.7,  -11.9,  -12.4,  -12.9,  -11.0,  -10.6,   -9.6,  999.0,  999.0,  -11.7,  999.0,  999.0,  999.0,  999.0,   -7.0,  999.0,   -8.8,  999.0,  999.0,  999.0
2000/11/12 17:30,   -5.5,   -9.7,  -10.3,   -9.6,  -10.4,  -11.0,  -11.4,  -11.2,  -10.1,   -7.0,   -5.4,  999.0,   -2.1,   -1.9,   -0.8,   -0.2,    0.2,    0.5,    0.9,    0.8,    0.8,    0.4,   -0.5,   -1.2,   -1.7,   -2.4,   -3.0,   -3.7,   -5.1,   -5.5,   -5.5,   -5.2,   -5.2,   -4.7,   -4.5,   -4.0,  999.0,    0.9,   -7.0,  999.0,    3.3,  999.0,  999.0,  999.0,  999.0,  999.0,  999.0,  999.0,  999.0,  999.0,  999.0,   -0.9,   -0.0,   -0.5,   -0.9,   -0.6,   -0.1,   -0.1
2000/11/12 17:40,   -5.1,   -8.5,  -10.9,  -12.6,  -12.4,  -10.0,   -7.7,   -5.8,   -4.5,   -3.9,   -0.5,    0.2,    0.4,    0.9,    1.4,    1.9,    2.2,    2.1,    2.2,    2.2,    1.6,    1.8,    1.8,    1.6,    2.2,    1.9,    1.1,   -1.1,   -1.5,   -2.0,   -2.3,   -2.8,   -2.4,  999.0,  999.0,  999.0,  999.0,    4.9,    5.4,  999.0,  999.0,  999.0,  999.0,  999.0,  999.0,  999.0,  999.0,  999.0,   -1.8,   -0.4,    0.0,    0.5,    0.1,   -0.7,   -1.6,   -2.1,   -1.4,   -0.6
2000/11/12 17:50,  999.0,   -6.4,   -8.7,   -5.7,   -3.8,   -1.3,   -0.8,    2.7,    3.5,    3.7,    5.3,    2.8,    2.7,    3.1,    3.4,    3.5,    3.8,    3.5,    3.1,    3.0,    2.8,    2.9,    2.3,    2.4,    2.1,    1.5,   -1.7,   -3.4,   -6.3,  999.0,   -2.0,  999.0,   -1.0,    0.5,  999.0,  999.0,  999.0,    3.0,    2.6,  999.0,  999.0,  999.0,  999.0,  999.0,  999.0,  999.0,  999.0,  999.0,   -3.9,   -2.4,   -1.1,    0.0,   -1.2,   -1.0,   -0.2,    1.1,    1.6,    2.3
2000/11/12 18:00,  999.0,  999.0,   -4.2,   -4.1,   -3.6,    0.3,    0.8,    1.9,    2.4,    3.2,    4.2,    4.7,    3.5,    3.7,    4.1,    4.4,    3.7,    3.6,    3.4,    3.1,    1.5,    1.1,    1.5,    1.6,    0.8,   -1.1,   -1.4,   -2.1,   -2.2,   -2.2,   -1.7,   -1.8,   -1.0,   -0.8,  999.0,  999.0,  999.0,   -0.8,  999.0,  999.0,  999.0,  999.0,  999.0,  999.0,  999.0,  999.0,  999.0,  999.0,  999.0,    1.5,    0.2,   -0.9,   -2.4,   -2.3,   -1.0,   -1.8,   -2.4,   -1.2
2000/11/12 18:10,  999.0,  999.0,    3.8,    3.0,    1.5,    0.7,   -0.5,   -0.9,    1.9,    2.0,    0.4,    0.2,    0.2,    0.9,    0.5,    0.3,    0.5,    0.8,    1.0,    1.9,    1.1,    0.7,    0.1,    0.3,    0.1,   -0.9,   -1.9,   -1.8,   -1.4,   -1.5,   -1.8,   -0.2,   -0.5,   -1.6,  999.0,  999.0,  999.0,  999.0,  999.0,  999.0,  999.0,  999.0,  999.0,  999.0,  999.0,  999.0,  999.0,  999.0,    0.3,  999.0,  999.0,  999.0,   -3.6,   -1.9,   -1.6,   -1.8,   -1.8,   -1.7
2000/11/12 18:20,  999.0,  999.0,    2.5,    3.3,    3.9,    1.6,    4.6,   -2.0,    1.4,    2.7,    4.0,    1.2,   -0.6,   -2.1,   -1.8,   -1.9,   -1.0,   -0.2,   -1.1,    2.0,    1.6,    0.2,   -0.5,   -1.6,   -3.0,   -3.2,   -2.5,   -1.0,   -1.0,   -1.4,   -2.4,  999.0,   -6.4,  999.0,   -4.0,  999.0,   -3.2,  999.0,  999.0,   -8.5,  999.0,  999.0,  999.0,  999.0,  999.0,   -5.8,  999.0,    2.5,   -4.1,  999.0,  999.0,    0.2,   -0.8,   -2.1,   -2.0,   -2.2,   -3.7,   -4.8
2000/11/12 18:30,  999.0,  999.0,    5.8,   -1.0,    1.8,    2.8,    2.7,    1.3,    6.4,    5.3,    4.8,    4.0,    3.7,    3.9,   -1.7,  999.0,    3.9,  999.0,  999.0,  999.0,  999.0,    4.5,    2.7,    1.8,    1.4,   -0.7,   -0.2,   -0.6,    0.4,   -3.2,   -4.5,   -3.5,   -3.3,   -3.9,   -5.1,   -5.4,   -5.9,   -5.6,   -5.2,   -5.4,   -5.7,   -5.9,   -6.1,   -6.5,   -6.8,   -6.3,  999.0,  999.0,  999.0,  999.0,  999.0,   -0.7,   -1.1,   -1.3,   -1.6,   -1.9,   -2.1,   -1.3
2000/11/12 18:40,  999.0,  999.0,  999.0,  999.0,    0.4,   -0.3,    2.1,    5.7,  999.0,    4.2,    2.7,    3.1,    3.1,    1.6,    0.6,    1.3,    1.4,  999.0,   -1.2,    2.8,    1.4,    2.3,    1.8,    1.2,   -0.2,    0.2,   -0.2,   -0.3,   -1.0,   -1.3,   -1.6,   -1.6,   -1.9,   -2.6,   -3.1,   -3.9,   -4.5,   -4.8,   -5.0,   -5.4,   -5.4,   -5.6,   -5.4,   -5.3,   -5.3,   -5.7,   -5.5,   -2.9,   -3.6,  999.0,  999.0,  999.0,  999.0,  999.0,   -1.3,   -1.0,   -0.2,    0.3
2000/11/12 18:50,  999.0,  999.0,  999.0,  999.0,  999.0,    0.5,    4.4,   -0.9,    2.4,  999.0,    1.6,   -0.5,    0.5,    1.3,   -2.9,  999.0,    0.2,    0.6,    1.2,    1.7,    1.8,    1.8,    2.0,    1.5,    0.7,    0.6,    0.1,   -0.1,   -0.3,   -0.6,   -0.8,   -0.9,   -1.8,   -2.1,   -3.3,   -4.6,   -4.8,   -5.1,   -5.7,   -6.4,   -6.7,   -6.7,   -6.7,   -7.5,   -7.0,  999.0,   -5.7,   -5.5,  999.0,  999.0,  999.0,  999.0,  999.0,  999.0,  999.0,   -5.5,   -2.5,    0.9
2000/11/12 19:00,  999.0,  999.0,  999.0,  999.0,   -2.6,   -3.6,  999.0,   -6.8,   -4.5,  999.0,  999.0,  999.0,    1.1,    5.9,    1.7,    0.4,    1.0,    1.3,    1.5,    2.4,    2.0,    2.4,    2.4,    1.9,    0.8,   -0.2,   -0.2,   -0.1,   -0.2,   -0.2,   -0.5,   -0.8,   -1.6,   -2.8,   -3.9,   -5.1,   -6.0,   -6.5,   -6.7,   -7.1,   -6.6,   -6.7,   -7.0,   -7.6,   -7.8,   -7.1,   -8.3,  999.0,  999.0,  999.0,  999.0,  999.0,  999.0,  999.0,  999.0,   -3.5,   -2.9,   -1.4
2000/11/12 19:10,  999.0,   -3.7,   -0.9,   -0.5,    8.6,    7.3,    6.8,    3.3,    2.0,    8.5,   -4.4,   -5.2,   -3.5,   -0.6,   -0.1,    0.0,    0.4,    0.9,    1.3,    2.1,    2.4,    2.6,    2.2,    1.2,    0.3,   -0.2,   -0.3,   -0.3,   -0.3,   -0.4,   -0.9,   -2.5,   -4.6,   -5.8,   -6.2,   -6.3,   -7.0,  999.0,  999.0,  999.0,  999.0,  999.0,  999.0,  999.0,  999.0,  999.0,  999.0,  999.0,  999.0,  999.0,  999.0,  999.0,  999.0,  999.0,  999.0,  999.0,  999.0,   -0.5
2000/11/12 19:20,  999.0,    2.6,   -7.5,   -7.7,   -7.6,    2.1,   -2.4,  -11.6,  999.0,  999.0,   -2.5,   -0.3,   -3.5,   -1.7,   -2.5,   -0.8,    0.0,    0.7,    1.8,    2.6,    3.1,    3.0,    2.7,    1.2,   -0.3,   -0.8,   -0.9,   -0.8,   -0.9,   -0.1,   -1.9,   -2.8,  999.0,  999.0,  999.0,  999.0,  999.0,  999.0,  999.0,  999.0,  999.0,  999.0,  999.0,  999.0,  999.0,  999.0,  999.0,  999.0,  999.0,  999.0,  999.0,  999.0,  999.0,  999.0,  999.0,    1.4,  999.0,  999.0
2000/11/12 19:30,  999.0,  -12.7,  999.0,  -11.9,    0.5,  999.0,  999.0,   -8.5,   -0.4,    5.7,   -8.0,   -0.1,   -5.4,   -0.1,   -0.4,   -0.4,   -0.3,    0.8,    1.9,    2.3,    2.8,    3.1,    2.7,    1.6,    0.6,   -1.1,   -1.6,   -1.5,   -1.0,  999.0,    0.4,  999.0,  999.0,  999.0,  999.0,  999.0,  999.0,  999.0,  999.0,  999.0,  999.0,  999.0,  999.0,  999.0,  999.0,  999.0,  999.0,  999.0,  999.0,  999.0,  999.0,  999.0,  999.0,  999.0,  999.0,    2.3,  999.0,   -3.2
2000/11/12 19:40,  999.0,   -5.7,  999.0,  999.0,    1.9,    6.6,   -6.3,   -2.1,    6.0,  999.0,  999.0,    8.1,   -3.9,    0.5,   -0.6,   -0.6,   -0.3,    1.7,    2.0,    2.8,    3.1,    2.8,    3.3,    1.0,   -0.1,   -0.6,   -1.2,   -1.8,   -1.8,   -2.4,   -4.5,   -3.4,   -5.3,   -6.1,   -6.7,   -5.8,   -8.1,  999.0,  999.0,  999.0,  999.0,  999.0,  999.0,  999.0,  999.0,  999.0,  999.0,  999.0,  999.0,  999.0,  999.0,  999.0,  999.0,  999.0,  999.0,   -2.3,   -2.9,   -2.7
2000/11/12 19:50,  999.0,  999.0,    0.3,   -7.4,   -3.4,    0.2,   -2.1,    2.0,   -0.5,  999.0,    5.8,    4.7,  999.0,  999.0,   -6.3,   -2.7,   -1.7,   -0.4,    0.3,    1.5,    1.1,    1.2,    1.2,    0.3,   -0.7,   -1.0,   -1.5,   -1.7,   -2.2,   -2.8,   -3.6,   -6.5,   -5.3,   -3.6,   -4.4,   -3.6,   -3.6,  999.0,   -7.5,  999.0,  999.0,   -7.2,  999.0,  999.0,  999.0,  999.0,  999.0,  999.0,  999.0,  999.0,  999.0,  999.0,  999.0,  999.0,  999.0,   -3.3,   -3.5,   -3.7
2000/11/12 20:00,  999.0,  999.0,  999.0,    3.9,    1.5,    0.4,    3.1,   -2.4,    0.3,   -1.9,    2.5,   -0.9,   -1.8,   -4.5,   -4.1,   -2.1,   -0.9,    0.4,    1.2,    1.7,    2.0,    2.2,    2.5,    2.2,    0.9,    0.5,   -0.2,   -0.5,   -1.0,   -1.3,   -2.9,  999.0,   -4.1,   -3.6,   -4.4,  999.0,   -4.9,   -5.7,   -3.9,   -4.0,  999.0,  999.0,  999.0,  999.0,  999.0,  999.0,  999.0,   -0.6,  999.0,  999.0,  999.0,  999.0,  999.0,  999.0,   -5.0,   -5.6,   -5.8,   -5.5
2000/11/12 20:10,  999.0,  999.0,   -1.5,   -3.0,   -2.8,   -3.2,   -1.7,    2.1,    3.7,    5.7,    3.7,    2.9,   -0.7,   -2.6,  999.0,   -1.1,    0.1,    1.0,    1.4,    2.0,    2.7,    2.5,    2.3,    2.6,    1.8,    1.7,    0.2,   -0.5,   -0.2,   -0.7,   -1.7,   -2.4,   -3.8,   -3.0,   -3.6,   -2.0,   -4.3,   -1.7,  999.0,  999.0,  999.0,  999.0,  999.0,  999.0,  999.0,  999.0,  999.0,  999.0,  999.0,  999.0,  999.0,  999.0,   -3.2,   -3.9,   -3.8,   -4.6,   -5.2,   -4.9
2000/11/12 20:20,  999.0,    0.3,    1.4,   -1.4,   -5.0,   -4.3,   -0.3,   -1.9,    0.3,    3.1,    2.3,    2.4,    2.5,  999.0,  999.0,   -0.7,   -0.3,    0.5,    0.8,    1.4,    1.3,    2.1,    2.9,    2.0,    2.8,    0.8,   -0.3,   -1.7,   -1.1,   -1.2,   -0.8,   -1.7,   -2.3,  999.0,   -3.9,   -3.9,  999.0,  999.0,  999.0,  999.0,  999.0,  999.0,  999.0,  999.0,  999.0,  999.0,  999.0,   -3.7,   -2.0,   -1.9,   -3.2,   -4.1,   -3.5,   -3.9,   -4.3,   -5.4,   -6.1,   -5.7
2000/11/12 20:30,  999.0,   -1.0,    3.9,    2.2,   -1.3,   -1.5,    3.7,    0.1,   -0.1,    1.5,    2.2,    3.6,  999.0,    0.4,   -5.4,  999.0,   -0.2,    0.0,   -0.3,    0.9,    1.4,    1.8,    2.0,    2.4,    2.6,    1.5,    0.6,   -0.1,   -0.8,   -0.7,   -0.9,   -2.3,   -0.9,  999.0,  999.0,  999.0,  999.0,  999.0,  999.0,  999.0,  -10.0,  999.0,  999.0,   -5.3,   -2.5,  999.0,    0.5,    1.0,   -1.2,    0.1,   -2.7,   -2.4,   -2.9,   -3.0,   -3.4,   -4.6,   -5.9,   -5.0
2000/11/12 20:40,  999.0,  999.0,   -2.3,   -2.5,   -0.5,   -0.7,    1.6,   -2.3,   -5.4,   -6.3,    2.7,    5.3,    1.9,    5.5,   -5.4,   -4.0,   -1.6,   -1.2,   -0.1,    1.3,    2.2,    1.9,    2.5,    2.6,    2.0,    2.1,    2.6,   -0.2,    0.5,    2.5,    2.0,    2.4,  999.0,   -0.6,   -1.3,    0.4,   -2.3,  999.0,  999.0,  999.0,  999.0,  999.0,   -5.0,   -3.1,    0.3,    1.2,    0.8,   -0.4,   -0.7,   -2.1,   -3.4,   -3.9,   -4.8,   -4.6,   -5.7,   -6.1,   -6.3,   -4.6
2000/11/12 20:50,  999.0,  999.0,   -4.9,    1.2,    0.4,   -2.8,    0.5,   -3.0,   -3.3,    0.8,   -0.3,   -3.5,   -1.9,   -0.9,   -9.2,  999.0,   -3.2,  999.0,   -2.3,   -0.1,    1.8,    1.3,    2.1,    1.7,    1.7,    2.0,    4.7,  999.0,  999.0,  999.0,   -2.6,   -2.0,  999.0,   -1.7,  999.0,  999.0,  999.0,    0.6,  999.0,   -1.5,  999.0,  999.0,  999.0,   -4.4,   -1.4,    0.9,    0.5,    0.2,   -1.3,   -2.9,   -3.7,   -3.8,   -4.2,   -4.5,   -5.4,   -5.3,   -4.6,   -3.0
2000/11/12 21:00,  999.0,   -4.9,   -0.5,  999.0,   -0.1,   -3.6,   -3.0,   -1.3,   -0.1,   -4.1,  999.0,  999.0,   -7.1,  999.0,  -10.7,   -9.8,   -9.2,  -10.7,  -13.0,  -13.5,  -13.1,  -13.3,  -13.5,  -13.3,  -14.1,  -14.9,  -14.7,  -14.4,  -17.0,  -17.6,  -17.3,  999.0,  999.0,  999.0,  999.0,   -3.4,  999.0,  999.0,  999.0,  999.0,  999.0,  999.0,  999.0,   -0.7,  999.0,    0.0,    1.0,    0.4,   -1.7,   -2.8,   -3.2,   -3.4,   -3.8,   -4.5,   -4.6,   -3.9,   -3.6,   -3.1
2000/11/12 21:10,  999.0,   -3.3,   -4.3,   -1.7,   -1.4,   -4.9,   -5.4,   -1.3,   -3.6,  999.0,  999.0,  999.0,  999.0,  999.0,  999.0,  999.0,   -8.1,  999.0,   -4.8,  -10.2,   -9.4,  -10.0,  999.0,  -11.1,  999.0,  999.0,    1.4,    0.5,   -0.7,   -0.4,   -1.6,  999.0,  999.0,  999.0,  999.0,  -15.3,  -16.2,  -16.4,  -16.0,  -15.4,  999.0,  -10.3,   -3.8,   -0.5,   -0.7,    2.2,    2.9,    2.8,    1.6,    0.1,   -0.5,   -1.2,   -1.1,   -2.4,   -2.8,   -4.4,   -4.3,   -4.2
2000/11/12 21:20,  999.0,    0.1,   -3.8,   -2.0,  999.0,    0.3,   -2.2,   -7.1,   -4.6,   -7.1,  -11.6,  -16.8,   -1.4,    2.3,    2.4,    6.6,    3.3,   -3.8,  999.0,  999.0,    2.5,    2.0,    1.8,    2.8,    2.4,    1.4,    0.9,    1.1,    1.5,    1.3,    0.9,    1.4,    2.1,    3.2,    3.0,    3.2,    3.1,    3.0,    2.8,    2.7,    2.6,    1.5,    1.8,    1.4,    1.5,    1.7,    2.8,    3.1,    2.4,    0.8,    0.5,    1.2,    1.2,   -0.6,   -4.1,   -3.7,   -4.3,   -4.5
2000/11/12 21:30,  999.0,  999.0,  999.0,  999.0,  999.0,   -2.8,   -1.6,   -1.2,   -0.5,   -0.3,    0.4,    0.8,    0.6,   -0.4,   -0.0,    0.5,    1.3,    2.1,    2.0,    1.8,    1.5,    1.8,    2.0,    2.3,    2.7,    2.3,    2.1,    2.6,    2.3,    1.4,    1.5,    1.6,    1.3,    1.9,    2.1,    1.8,    1.8,    2.3,    2.6,    2.4,    2.5,    0.8,   -0.5,    1.3,    2.6,    2.2,    2.2,    2.4,    2.2,  999.0,    1.6,  999.0,  999.0,  999.0,  999.0,  999.0,  999.0,  999.0
2000/11/12 21:40,  999.0,  999.0,  999.0,  999.0,   -2.9,  999.0,  999.0,  999.0,    0.5,    1.0,    0.6,    2.3,    4.3,    5.2,    6.9,    6.6,    7.6,    7.0,    6.9,    8.4,    8.7,    9.2,    9.9,   10.4,   12.4,   14.0,   14.6,   14.0,   14.8,   16.1,   13.9,   15.6,   14.9,  999.0,  999.0,  999.0,  999.0,   13.0,   12.8,  999.0,  999.0,  999.0,  999.0,  999.0,  999.0,  999.0,  999.0,  999.0,  999.0,  999.0,  999.0,  999.0,  999.0,  999.0,  999.0,  999.0,  999.0,  999.0
2000/11/12 21:50,  999.0,  999.0,  999.0,  999.0,  999.0,   -2.7,   -2.2,   -0.2,    1.1,   -0.0,   -1.6,   -0.1,  999.0,   -2.4,   -3.5,   -4.0,   -4.1,   -3.3,   -1.1,   -1.0,   -2.0,   -2.1,   -2.7,   -1.6,   -0.8,   -0.1,    0.8,   -0.0,    0.2,  999.0,  999.0,  999.0,  999.0,  999.0,  999.0,  999.0,  999.0,  999.0,  999.0,  999.0,  999.0,  999.0,  999.0,  999.0,  999.0,  999.0,  999.0,  999.0,  999.0,  999.0,  999.0,  999.0,  999.0,  999.0,  999.0,  999.0,  999.0,  999.0
2000/11/12 22:00,  999.0,   -1.0,  999.0,   -3.4,  999.0,   -8.4,   -1.8,   -2.4,   -2.2,   -3.4,   -3.8,  999.0,   -6.1,   -5.3,   -5.8,   -6.2,   -5.1,   -4.2,   -3.6,   -2.8,   -3.1,   -3.5,   -3.7,   -2.1,  999.0,   -2.1,   -1.4,   -1.1,  999.0,  999.0,   -2.3,   -3.3,   -2.7,   -3.1,  999.0,  999.0,   -5.2,  999.0,  999.0,  999.0,  999.0,  999.0,  999.0,  999.0,  999.0,  999.0,  999.0,   -1.3,   -1.9,   -2.6,   -2.6,   -3.8,   -4.0,   -4.4,   -5.0,   -4.3,   -4.1,   -5.0
2000/11/12 22:10,  999.0,   -1.9,  999.0,  999.0,  999.0,   -3.4,   -2.9,   -4.6,   -4.6,   -3.4,   -3.0,   -5.0,  999.0,   -3.8,   -4.6,   -3.4,   -3.3,   -3.4,   -2.9,   -3.9,   -4.5,   -6.5,   -5.5,   -5.7,  999.0,  999.0,  999.0,  999.0,  999.0,  999.0,  999.0,   -2.2,  999.0,  999.0,  999.0,  999.0,  999.0,  999.0,  999.0,  999.0,  999.0,  999.0,  999.0,  999.0,   -0.3,    1.6,    2.1,    1.7,    0.5,   -0.4,   -1.1,   -1.6,   -1.5,   -1.7,   -2.6,   -3.9,   -3.8,   -4.6
2000/11/12 22:20,  999.0,   -1.9,   -1.1,  999.0,  999.0,   -3.9,   -3.1,   -2.2,   -2.2,   -2.5,    0.9,    1.3,  999.0,  999.0,  999.0,   -6.6,   -7.1,   -5.5,   -5.4,   -5.4,   -4.1,   -5.8,  999.0,   -2.1,  999.0,  999.0,  999.0,  999.0,   -1.7,   -0.4,  999.0,  999.0,  -17.3,  -14.7,  -18.7,  -15.8,  -16.8,  -16.7,  -13.9,  -13.9,  -14.1,  -11.0,   -6.9,   -2.6,    0.1,    1.0,    1.2,    0.9,   -0.4,   -1.2,   -1.4,   -1.7,   -0.9,   -0.6,   -1.5,  999.0,  999.0,  999.0
2000/11/12 22:30,  999.0,   -2.5,  999.0,  999.0,  999.0,   -5.7,   -4.8,   -2.7,   -1.0,   -1.9,   -1.8,   -2.6,   -2.6,   -3.4,   -3.7,   -3.1,  999.0,   -2.3,   -3.5,   -4.0,   -3.3,   -5.0,  999.0,  999.0,  999.0,  999.0,  999.0,  999.0,  999.0,  999.0,  999.0,  999.0,  -13.6,  -14.7,  -14.8,  -17.7,  -16.8,  -12.8,   -7.8,  999.0,   -0.2,  999.0,  999.0,   -1.1,    0.0,    1.8,    2.3,    1.4,    0.5,  999.0,  999.0,  999.0,  999.0,  999.0,  999.0,  999.0,  999.0,  999.0
2000/11/12 22:40,  999.0,   -3.0,   -3.9,   -5.4,   -4.6,   -3.8,   -2.4,   -1.9,   -2.1,   -3.0,   -3.4,   -2.8,  999.0,  999.0,   -3.4,   -5.7,   -8.3,   -7.1,   -5.4,   -5.1,   -4.8,   -4.2,  999.0,   -4.9,   -5.3,  999.0,  999.0,  999.0,  999.0,  999.0,  999.0,  999.0,  999.0,  -22.1,  999.0,  999.0,  999.0,  999.0,  999.0,  999.0,  999.0,  999.0,  999.0,  999.0,  999.0,  999.0,  999.0,  999.0,  999.0,  -25.7,  -19.0,  999.0,  999.0,  999.0,  -16.2,  999.0,  999.0,  999.0
2000/11/12 22:50,  999.0,  999.0,  999.0,   -3.6,   -2.4,   -3.7,   -1.2,   -0.4,   -1.0,   -3.1,   -3.1,   -3.6,   -3.2,   -2.0,   -2.4,   -4.8,   -5.4,   -7.3,   -5.9,   -7.1,  999.0,   -4.7,  -10.8,   -6.3,  999.0,  999.0,  999.0,  999.0,   -4.4,   -6.3,  999.0,  999.0,  999.0,  999.0,  999.0,  999.0,  999.0,  999.0,  999.0,  999.0,  999.0,  999.0,  999.0,  999.0,  999.0,  999.0,  999.0,  999.0,  999.0,  999.0,  -25.4,  999.0,  999.0,  999.0,  999.0,  999.0,  999.0,  999.0
2000/11/12 23:00,  999.0,  999.0,    1.3,   -1.9,  999.0,  999.0,    1.6,    0.5,   -1.4,   -1.9,   -0.9,    3.7,    2.2,   -3.6,   -4.1,   -4.5,  999.0,   -5.8,  999.0,  999.0,  999.0,  999.0,  999.0,  999.0,  999.0,  999.0,  999.0,  999.0,   -7.1,   -6.7,   -7.7,  999.0,  999.0,  999.0,  999.0,  999.0,  999.0,  999.0,  999.0,  999.0,  999.0,  999.0,  999.0,  999.0,  999.0,  999.0,  999.0,  999.0,  999.0,  999.0,  999.0,  999.0,  999.0,  999.0,  999.0,  999.0,  999.0,  999.0
2000/11/12 23:10,  999.0,   -2.0,   -1.5,   -2.9,   -2.0,   -2.9,   -3.1,   -1.2,    0.1,    0.2,   -1.7,    1.7,    1.1,    1.0,   -4.7,  999.0,  999.0,  999.0,  999.0,  999.0,  999.0,  999.0,  999.0,  999.0,  999.0,  999.0,  999.0,  999.0,   -6.9,   -6.8,  999.0,  999.0,  999.0,  999.0,  999.0,  999.0,  999.0,  999.0,  999.0,  999.0,  999.0,  999.0,  999.0,  999.0,  999.0,  999.0,  999.0,  999.0,  999.0,  -22.8,  999.0,  999.0,  999.0,  -23.7,  999.0,  999.0,  999.0,  999.0
2000/11/12 23:20,  999.0,   -0.4,   -2.0,   -5.0,   -4.4,   -5.2,   -3.6,   -2.1,   -2.5,  999.0,    2.5,  999.0,    6.7,    1.6,  999.0,    3.4,    2.2,  999.0,  999.0,  999.0,  999.0,  999.0,  999.0,  999.0,  999.0,  999.0,  999.0,  999.0,   -4.8,   -5.9,  999.0,  999.0,  999.0,  999.0,  999.0,  999.0,  999.0,  999.0,  999.0,  999.0,  999.0,  999.0,  999.0,  999.0,  999.0,  999.0,  999.0,  999.0,  999.0,  999.0,  999.0,  999.0,  999.0,  999.0,  999.0,  999.0,  999.0,  999.0
2000/11/12 23:30,  999.0,   -3.8,   -2.0,   -4.1,   -4.0,   -4.1,   -3.1,   -1.9,    2.0,    4.0,    3.5,    6.7,    4.0,    2.6,  999.0,  999.0,    1.1,  999.0,  999.0,  999.0,  999.0,  999.0,  999.0,  999.0,  999.0,  999.0,  999.0,   -4.9,   -9.6,   -0.8,   -0.9,  999.0,  999.0,  999.0,  999.0,  999.0,  999.0,  -19.8,  999.0,  999.0,  999.0,  999.0,  999.0,  999.0,  999.0,  999.0,  999.0,  999.0,  999.0,  999.0,  999.0,  999.0,  999.0,  999.0,  999.0,  999.0,  999.0,  999.0
2000/11/12 23:40,  999.0,   -3.7,  999.0,   -2.2,   -3.0,   -2.9,   -2.4,   -1.7,   -1.5,   -1.9,    0.4,    0.9,   -0.3,    1.3,    2.0,    1.8,    1.8,    0.5,  999.0,  999.0,    0.9,  999.0,  999.0,  999.0,  999.0,   -3.7,  999.0,  999.0,   -7.2,  999.0,  999.0,  999.0,  999.0,  999.0,  999.0,  999.0,  999.0,  999.0,  999.0,  999.0,  999.0,  -33.6,  -35.9,  999.0,  999.0,  999.0,  999.0,  999.0,  999.0,  999.0,  999.0,  999.0,  999.0,  999.0,  999.0,  999.0,  999.0,  999.0
2000/11/12 23:50,  999.0,  999.0,    3.6,   -3.3,   -3.1,   -3.0,   -2.2,   -1.0,   -1.0,   -0.6,  999.0,  999.0,   10.2,    1.1,    0.3,  999.0,    2.1,    3.3,  999.0,    0.2,   -0.0,  999.0,  999.0,  999.0,  999.0,  999.0,  999.0,  999.0,  999.0,  999.0,  999.0,  999.0,  999.0,  999.0,  999.0,  -31.7,  999.0,  -34.0,  999.0,  -31.6,  -27.5,  -37.9,  999.0,  999.0,  999.0,  999.0,  999.0,  -41.9,  -41.1,  999.0,  999.0,  999.0,  999.0,  999.0,  999.0,  -42.0,  -41.7,  999.0
